Time,TemperatureF,DewpointF,PressureIn,WindDirection,WindDirectionDegrees,WindSpeedMPH,WindSpeedGustMPH,Humidity,HourlyPrecipIn,Conditions,Clouds,dailyrainin,SolarRadiationWatts/m^2,SoftwareType,DateUTC
2013-03-08 00:00:00,25.6,22.8,30.33,SE,128,2.0,4.0,89,0.00,,CLR,0.00,0.00,VWS V14.00,2013-03-08 06:00:00,
2013-03-08 00:01:00,25.6,22.8,30.33,SE,130,2.0,6.0,89,0.00,,CLR,0.00,0.00,VWS V14.00,2013-03-08 06:01:00,
2013-03-08 00:02:00,25.6,22.8,30.33,SE,130,2.0,6.0,89,0.00,,CLR,0.00,0.00,VWS V14.00,2013-03-08 06:02:00,
2013-03-08 00:05:00,25.6,22.8,30.33,SE,128,4.0,4.0,89,0.00,,CLR,0.00,0.00,VWS V14.00,2013-03-08 06:05:00,
2013-03-08 00:06:00,25.5,22.7,30.34,SE,128,2.0,4.0,89,0.00,,CLR,0.00,0.00,VWS V14.00,2013-03-08 06:06:00,
2013-03-08 00:07:00,25.6,22.8,30.34,SE,128,2.0,4.0,89,0.00,,CLR,0.00,0.00,VWS V14.00,2013-03-08 06:07:00,
2013-03-08 00:10:00,25.5,22.7,30.34,ESE,123,2.0,4.0,89,0.00,,CLR,0.00,0.00,VWS V14.00,2013-03-08 06:10:00,
2013-03-08 00:11:00,25.5,22.7,30.34,ESE,123,1.0,4.0,89,0.00,,CLR,0.00,0.00,VWS V14.00,2013-03-08 06:11:00,
2013-03-08 00:12:00,25.5,22.7,30.34,ESE,123,4.0,4.0,89,0.00,,CLR,0.00,0.00,VWS V14.00,2013-03-08 06:12:00,
2013-03-08 00:15:00,25.4,22.6,30.34,ESE,112,2.0,5.0,89,0.00,,CLR,0.00,0.00,VWS V14.00,2013-03-08 06:15:00,
2013-03-08 00:16:00,25.4,22.6,30.34,ESE,112,4.0,5.0,89,0.00,,CLR,0.00,0.00,VWS V14.00,2013-03-08 06:16:00,
2013-03-08 00:17:00,25.4,22.6,30.34,ESE,121,2.0,5.0,89,0.00,,CLR,0.00,0.00,VWS V14.00,2013-03-08 06:17:00,
2013-03-08 00:20:00,25.3,22.5,30.34,ESE,123,4.0,5.0,89,0.00,,,0.00,0.00,VWS V14.00,2013-03-08 06:20:00,
2013-03-08 00:21:00,25.3,22.5,30.34,SE,139,2.0,6.0,89,0.00,,CLR,0.00,0.00,VWS V14.00,2013-03-08 06:21:00,
2013-03-08 00:22:00,25.3,22.5,30.34,SE,126,4.0,6.0,89,0.00,,CLR,0.00,0.00,VWS V14.00,2013-03-08 06:22:00,
2013-03-08 00:23:00,25.3,22.5,30.33,SE,126,2.0,6.0,89,0.00,,CLR,0.00,0.00,VWS V14.00,2013-03-08 06:23:00,
2013-03-08 00:25:00,25.3,22.5,30.33,SE,126,2.0,6.0,89,0.00,,,0.00,0.00,VWS V14.00,2013-03-08 06:25:00,
2013-03-08 00:26:00,25.2,22.4,30.33,ESE,120,4.0,4.0,89,0.00,,CLR,0.00,0.00,VWS V14.00,2013-03-08 06:26:00,
2013-03-08 00:27:00,25.2,22.4,30.33,ESE,119,4.0,4.0,89,0.00,,CLR,0.00,0.00,VWS V14.00,2013-03-08 06:27:00,
2013-03-08 00:28:00,25.1,22.3,30.33,ESE,118,2.0,4.0,89,0.00,,CLR,0.00,0.00,VWS V14.00,2013-03-08 06:28:00,
2013-03-08 00:30:00,25.1,22.3,30.33,ESE,118,4.0,4.0,89,0.00,,,0.00,0.00,VWS V14.00,2013-03-08 06:30:00,
2013-03-08 00:31:00,25.0,22.2,30.34,ESE,118,1.0,4.0,89,0.00,,CLR,0.00,0.00,VWS V14.00,2013-03-08 06:31:00,
2013-03-08 00:32:00,25.0,22.2,30.34,ESE,119,2.0,4.0,89,0.00,,CLR,0.00,0.00,VWS V14.00,2013-03-08 06:32:00,
2013-03-08 00:33:00,24.9,22.1,30.34,ESE,118,0.0,4.0,89,0.00,,CLR,0.00,0.00,VWS V14.00,2013-03-08 06:33:00,
2013-03-08 00:35:00,24.9,22.1,30.34,ESE,119,0.0,4.0,89,0.00,,,0.00,0.00,VWS V14.00,2013-03-08 06:35:00,
2013-03-08 00:36:00,24.9,22.1,30.34,ESE,119,1.0,4.0,89,0.00,,CLR,0.00,0.00,VWS V14.00,2013-03-08 06:36:00,
2013-03-08 00:37:00,24.8,22.0,30.34,ESE,119,1.0,4.0,89,0.00,,CLR,0.00,0.00,VWS V14.00,2013-03-08 06:37:00,
2013-03-08 00:38:00,24.8,22.0,30.34,ESE,118,1.0,4.0,89,0.00,,CLR,0.00,0.00,VWS V14.00,2013-03-08 06:38:00,
2013-03-08 00:40:00,24.8,22.0,30.34,ESE,115,2.0,4.0,89,0.00,,,0.00,0.00,VWS V14.00,2013-03-08 06:40:00,
2013-03-08 00:41:00,24.7,21.9,30.34,ESE,115,2.0,4.0,89,0.00,,CLR,0.00,0.00,VWS V14.00,2013-03-08 06:41:00,
2013-03-08 00:42:00,24.6,22.1,30.34,ESE,115,1.0,4.0,90,0.00,,CLR,0.00,0.00,VWS V14.00,2013-03-08 06:42:00,
2013-03-08 00:43:00,24.6,22.1,30.34,ESE,115,2.0,4.0,90,0.00,,CLR,0.00,0.00,VWS V14.00,2013-03-08 06:43:00,
2013-03-08 00:45:00,24.6,22.1,30.34,ESE,115,0.0,4.0,90,0.00,,,0.00,0.00,VWS V14.00,2013-03-08 06:45:00,
2013-03-08 00:46:00,24.5,22.0,30.34,ESE,115,1.0,4.0,90,0.00,,CLR,0.00,0.00,VWS V14.00,2013-03-08 06:46:00,
2013-03-08 00:47:00,24.5,22.0,30.34,ESE,115,0.0,4.0,90,0.00,,CLR,0.00,0.00,VWS V14.00,2013-03-08 06:47:00,
2013-03-08 00:48:00,24.5,22.0,30.34,ESE,115,1.0,4.0,90,0.00,,CLR,0.00,0.00,VWS V14.00,2013-03-08 06:48:00,
2013-03-08 00:49:00,24.5,22.0,30.34,ESE,115,2.0,4.0,90,0.00,,CLR,0.00,0.00,VWS V14.00,2013-03-08 06:49:00,
2013-03-08 00:50:00,24.5,22.0,30.34,ESE,115,2.0,4.0,90,0.00,,,0.00,0.00,VWS V14.00,2013-03-08 06:50:00,
2013-03-08 00:51:00,24.4,21.9,30.34,ESE,109,0.0,4.0,90,0.00,,CLR,0.00,0.00,VWS V14.00,2013-03-08 06:51:00,
2013-03-08 00:53:00,24.3,21.8,30.34,ESE,119,4.0,4.0,90,0.00,,CLR,0.00,0.00,VWS V14.00,2013-03-08 06:53:00,
2013-03-08 00:54:00,24.2,21.7,30.34,ESE,118,1.0,4.0,90,0.00,,CLR,0.00,0.00,VWS V14.00,2013-03-08 06:54:00,
2013-03-08 00:55:00,24.2,21.7,30.34,ESE,118,1.0,4.0,90,0.00,,,0.00,0.00,VWS V14.00,2013-03-08 06:55:00,
2013-03-08 00:56:00,24.2,21.7,30.34,ESE,118,0.0,2.0,90,0.00,,CLR,0.00,0.00,VWS V14.00,2013-03-08 06:56:00,
2013-03-08 00:58:00,24.1,21.6,30.34,ESE,118,2.0,2.0,90,0.00,,CLR,0.00,0.00,VWS V14.00,2013-03-08 06:58:00,
2013-03-08 00:59:00,24.2,21.7,30.34,ESE,117,1.0,5.0,90,0.00,,CLR,0.00,0.00,VWS V14.00,2013-03-08 06:59:00,
2013-03-08 01:00:00,24.2,21.7,30.34,ESE,117,1.0,5.0,90,0.00,,,0.00,0.00,VWS V14.00,2013-03-08 07:00:00,
2013-03-08 01:02:00,24.2,21.7,30.34,ESE,122,2.0,4.0,90,0.00,,CLR,0.00,0.00,VWS V14.00,2013-03-08 07:02:00,
2013-03-08 01:03:00,24.1,21.6,30.34,SE,133,2.0,4.0,90,0.00,,CLR,0.00,0.00,VWS V14.00,2013-03-08 07:03:00,
2013-03-08 01:04:00,24.2,21.7,30.34,ESE,110,2.0,4.0,90,0.00,,CLR,0.00,0.00,VWS V14.00,2013-03-08 07:04:00,
2013-03-08 01:05:00,24.2,21.7,30.34,ESE,110,2.0,4.0,90,0.00,,,0.00,0.00,VWS V14.00,2013-03-08 07:05:00,
2013-03-08 01:07:00,24.2,22.0,30.34,ESE,113,2.0,6.0,91,0.00,,CLR,0.00,0.00,VWS V14.00,2013-03-08 07:07:00,
2013-03-08 01:08:00,24.3,22.1,30.34,ESE,107,4.0,7.0,91,0.00,,CLR,0.00,0.00,VWS V14.00,2013-03-08 07:08:00,
2013-03-08 01:09:00,24.3,22.1,30.34,ESE,108,4.0,7.0,91,0.00,,CLR,0.00,0.00,VWS V14.00,2013-03-08 07:09:00,
2013-03-08 01:10:00,24.3,22.1,30.34,ESE,108,4.0,7.0,91,0.00,,,0.00,0.00,VWS V14.00,2013-03-08 07:10:00,
2013-03-08 01:12:00,24.3,21.8,30.34,SE,136,2.0,5.0,90,0.00,,CLR,0.00,0.00,VWS V14.00,2013-03-08 07:12:00,
2013-03-08 01:14:00,24.3,21.8,30.34,SE,130,4.0,5.0,90,0.00,,CLR,0.00,0.00,VWS V14.00,2013-03-08 07:14:00,
2013-03-08 01:15:00,24.3,21.8,30.34,SE,130,4.0,5.0,90,0.00,,,0.00,0.00,VWS V14.00,2013-03-08 07:15:00,
2013-03-08 01:17:00,24.4,21.9,30.34,SE,130,5.0,6.0,90,0.00,,CLR,0.00,0.00,VWS V14.00,2013-03-08 07:17:00,
2013-03-08 01:19:00,24.4,21.9,30.34,SE,130,4.0,6.0,90,0.00,,CLR,0.00,0.00,VWS V14.00,2013-03-08 07:19:00,
2013-03-08 01:20:00,24.4,21.9,30.34,SE,130,4.0,6.0,90,0.00,,,0.00,0.00,VWS V14.00,2013-03-08 07:20:00,
2013-03-08 01:22:00,24.4,21.9,30.34,ESE,115,5.0,6.0,90,0.00,,CLR,0.00,0.00,VWS V14.00,2013-03-08 07:22:00,
2013-03-08 01:24:00,24.4,21.9,30.34,SE,133,4.0,7.0,90,0.00,,CLR,0.00,0.00,VWS V14.00,2013-03-08 07:24:00,
2013-03-08 01:25:00,24.4,21.9,30.34,ESE,105,4.0,6.0,90,0.00,,CLR,0.00,0.00,VWS V14.00,2013-03-08 07:25:00,
2013-03-08 01:27:00,24.4,21.9,30.34,SE,129,5.0,8.0,90,0.00,,CLR,0.00,0.00,VWS V14.00,2013-03-08 07:27:00,
2013-03-08 01:29:00,24.4,21.9,30.34,SE,125,2.0,8.0,90,0.00,,CLR,0.00,0.00,VWS V14.00,2013-03-08 07:29:00,
2013-03-08 01:30:00,24.3,21.8,30.34,SE,124,4.0,8.0,90,0.00,,CLR,0.00,0.00,VWS V14.00,2013-03-08 07:30:00,
2013-03-08 01:32:00,24.4,21.9,30.34,ESE,121,4.0,8.0,90,0.00,,CLR,0.00,0.00,VWS V14.00,2013-03-08 07:32:00,
2013-03-08 01:34:00,24.3,21.8,30.34,SE,124,5.0,5.0,90,0.00,,CLR,0.00,0.00,VWS V14.00,2013-03-08 07:34:00,
2013-03-08 01:35:00,24.3,21.8,30.34,SE,132,4.0,8.0,90,0.00,,,0.00,0.00,VWS V14.00,2013-03-08 07:35:00,
2013-03-08 01:36:00,24.3,21.8,30.34,ESE,113,4.0,6.0,90,0.00,,CLR,0.00,0.00,VWS V14.00,2013-03-08 07:36:00,
2013-03-08 01:37:00,24.3,21.8,30.34,ESE,114,4.0,7.0,90,0.00,,CLR,0.00,0.00,VWS V14.00,2013-03-08 07:37:00,
2013-03-08 01:39:00,24.3,21.8,30.34,SE,131,4.0,4.0,90,0.00,,CLR,0.00,0.00,VWS V14.00,2013-03-08 07:39:00,
2013-03-08 01:40:00,24.3,21.8,30.34,ESE,103,2.0,7.0,90,0.00,,,0.00,0.00,VWS V14.00,2013-03-08 07:40:00,
2013-03-08 01:41:00,24.3,21.8,30.34,SE,130,4.0,6.0,90,0.00,,CLR,0.00,0.00,VWS V14.00,2013-03-08 07:41:00,
2013-03-08 01:43:00,24.2,21.7,30.34,SE,134,6.0,6.0,90,0.00,,CLR,0.00,0.00,VWS V14.00,2013-03-08 07:43:00,
2013-03-08 01:44:00,24.2,21.7,30.34,SE,130,4.0,5.0,90,0.00,,CLR,0.00,0.00,VWS V14.00,2013-03-08 07:44:00,
2013-03-08 01:45:00,24.3,21.8,30.34,ESE,119,4.0,6.0,90,0.00,,,0.00,0.00,VWS V14.00,2013-03-08 07:45:00,
2013-03-08 01:46:00,24.2,21.7,30.34,SE,132,4.0,6.0,90,0.00,,CLR,0.00,0.00,VWS V14.00,2013-03-08 07:46:00,
2013-03-08 01:48:00,24.2,21.7,30.34,SE,130,4.0,7.0,90,0.00,,CLR,0.00,0.00,VWS V14.00,2013-03-08 07:48:00,
2013-03-08 01:49:00,24.2,21.7,30.34,SE,130,4.0,4.0,90,0.00,,CLR,0.00,0.00,VWS V14.00,2013-03-08 07:49:00,
2013-03-08 01:50:00,24.2,21.7,30.34,SE,131,2.0,7.0,90,0.00,,,0.00,0.00,VWS V14.00,2013-03-08 07:50:00,
2013-03-08 01:51:00,24.2,21.7,30.34,SE,128,2.0,7.0,90,0.00,,CLR,0.00,0.00,VWS V14.00,2013-03-08 07:51:00,
2013-03-08 01:53:00,24.3,21.8,30.34,SE,132,4.0,7.0,90,0.00,,CLR,0.00,0.00,VWS V14.00,2013-03-08 07:53:00,
2013-03-08 01:54:00,24.3,21.8,30.34,ESE,122,5.0,5.0,90,0.00,,CLR,0.00,0.00,VWS V14.00,2013-03-08 07:54:00,
2013-03-08 01:55:00,24.3,21.8,30.34,ESE,122,2.0,5.0,90,0.00,,CLR,0.00,0.00,VWS V14.00,2013-03-08 07:55:00,
2013-03-08 01:56:00,24.3,21.8,30.34,ESE,121,4.0,8.0,90,0.00,,CLR,0.00,0.00,VWS V14.00,2013-03-08 07:56:00,
2013-03-08 01:59:00,24.4,21.9,30.34,SE,131,4.0,5.0,90,0.00,,CLR,0.00,0.00,VWS V14.00,2013-03-08 07:59:00,
2013-03-08 02:00:00,24.4,21.9,30.34,SE,136,6.0,6.0,90,0.00,,CLR,0.00,0.00,VWS V14.00,2013-03-08 08:00:00,
2013-03-08 02:02:00,24.4,21.9,30.34,ESE,122,4.0,7.0,90,0.00,,CLR,0.00,0.00,VWS V14.00,2013-03-08 08:02:00,
2013-03-08 02:04:00,24.3,21.8,30.34,SE,132,4.0,5.0,90,0.00,,CLR,0.00,0.00,VWS V14.00,2013-03-08 08:04:00,
2013-03-08 02:05:00,24.3,21.8,30.34,ESE,123,5.0,6.0,90,0.00,,CLR,0.00,0.00,VWS V14.00,2013-03-08 08:05:00,
2013-03-08 02:06:00,24.3,21.8,30.34,ESE,111,2.0,6.0,90,0.00,,CLR,0.00,0.00,VWS V14.00,2013-03-08 08:06:00,
2013-03-08 02:07:00,24.3,21.8,30.34,ESE,110,4.0,6.0,90,0.00,,CLR,0.00,0.00,VWS V14.00,2013-03-08 08:07:00,
2013-03-08 02:09:00,24.3,21.8,30.33,SE,124,4.0,4.0,90,0.00,,CLR,0.00,0.00,VWS V14.00,2013-03-08 08:09:00,
2013-03-08 02:10:00,24.3,21.8,30.33,ESE,105,2.0,4.0,90,0.00,,CLR,0.00,0.00,VWS V14.00,2013-03-08 08:10:00,
2013-03-08 02:11:00,24.3,21.8,30.33,ESE,115,2.0,4.0,90,0.00,,CLR,0.00,0.00,VWS V14.00,2013-03-08 08:11:00,
2013-03-08 02:12:00,24.3,21.8,30.33,ESE,117,2.0,4.0,90,0.00,,CLR,0.00,0.00,VWS V14.00,2013-03-08 08:12:00,
2013-03-08 02:14:00,24.2,21.7,30.33,SE,136,5.0,6.0,90,0.00,,CLR,0.00,0.00,VWS V14.00,2013-03-08 08:14:00,
2013-03-08 02:15:00,24.2,21.7,30.33,SE,143,2.0,6.0,90,0.00,,CLR,0.00,0.00,VWS V14.00,2013-03-08 08:15:00,
2013-03-08 02:16:00,24.2,21.7,30.33,SE,133,5.0,6.0,90,0.00,,CLR,0.00,0.00,VWS V14.00,2013-03-08 08:16:00,
2013-03-08 02:17:00,24.2,21.7,30.33,SE,126,5.0,7.0,90,0.00,,CLR,0.00,0.00,VWS V14.00,2013-03-08 08:17:00,
2013-03-08 02:19:00,24.2,21.7,30.33,ESE,119,4.0,5.0,90,0.00,,CLR,0.00,0.00,VWS V14.00,2013-03-08 08:19:00,
2013-03-08 02:20:00,24.2,21.7,30.34,ESE,119,4.0,6.0,90,0.00,,CLR,0.00,0.00,VWS V14.00,2013-03-08 08:20:00,
2013-03-08 02:21:00,24.2,21.7,30.34,ESE,123,6.0,6.0,90,0.00,,CLR,0.00,0.00,VWS V14.00,2013-03-08 08:21:00,
2013-03-08 02:22:00,24.2,21.7,30.33,SE,124,4.0,6.0,90,0.00,,CLR,0.00,0.00,VWS V14.00,2013-03-08 08:22:00,
2013-03-08 02:25:00,24.3,21.8,30.33,ESE,121,5.0,6.0,90,0.00,,CLR,0.00,0.00,VWS V14.00,2013-03-08 08:25:00,
2013-03-08 02:26:00,24.3,21.8,30.33,SE,128,4.0,6.0,90,0.00,,CLR,0.00,0.00,VWS V14.00,2013-03-08 08:26:00,
2013-03-08 02:27:00,24.3,21.8,30.34,ESE,106,5.0,6.0,90,0.00,,CLR,0.00,0.00,VWS V14.00,2013-03-08 08:27:00,
2013-03-08 02:30:00,24.3,21.8,30.34,SE,129,4.0,4.0,90,0.00,,CLR,0.00,0.00,VWS V14.00,2013-03-08 08:30:00,
2013-03-08 02:31:00,24.2,21.7,30.34,SE,128,2.0,4.0,90,0.00,,CLR,0.00,0.00,VWS V14.00,2013-03-08 08:31:00,
2013-03-08 02:32:00,24.2,21.7,30.34,ESE,109,4.0,5.0,90,0.00,,CLR,0.00,0.00,VWS V14.00,2013-03-08 08:32:00,
2013-03-08 02:35:00,24.2,21.7,30.33,SE,130,2.0,5.0,90,0.00,,CLR,0.00,0.00,VWS V14.00,2013-03-08 08:35:00,
2013-03-08 02:36:00,24.2,21.7,30.33,ESE,115,4.0,5.0,90,0.00,,CLR,0.00,0.00,VWS V14.00,2013-03-08 08:36:00,
2013-03-08 02:37:00,24.2,21.7,30.33,SE,128,4.0,6.0,90,0.00,,CLR,0.00,0.00,VWS V14.00,2013-03-08 08:37:00,
2013-03-08 02:40:00,24.1,21.6,30.33,ESE,113,2.0,5.0,90,0.00,,CLR,0.00,0.00,VWS V14.00,2013-03-08 08:40:00,
2013-03-08 02:41:00,24.1,21.6,30.33,ESE,114,2.0,5.0,90,0.00,,CLR,0.00,0.00,VWS V14.00,2013-03-08 08:41:00,
2013-03-08 02:42:00,24.1,21.6,30.33,ESE,113,4.0,5.0,90,0.00,,CLR,0.00,0.00,VWS V14.00,2013-03-08 08:42:00,
2013-03-08 02:45:00,24.0,21.5,30.33,ESE,121,1.0,4.0,90,0.00,,CLR,0.00,0.00,VWS V14.00,2013-03-08 08:45:00,
2013-03-08 02:46:00,24.0,21.5,30.33,ESE,121,2.0,4.0,90,0.00,,CLR,0.00,0.00,VWS V14.00,2013-03-08 08:46:00,
2013-03-08 02:47:00,23.9,21.4,30.33,ESE,121,1.0,4.0,90,0.00,,CLR,0.00,0.00,VWS V14.00,2013-03-08 08:47:00,
2013-03-08 02:50:00,23.8,21.3,30.33,SE,129,1.0,6.0,90,0.00,,CLR,0.00,0.00,VWS V14.00,2013-03-08 08:50:00,
2013-03-08 02:51:00,23.8,21.3,30.33,SE,128,1.0,6.0,90,0.00,,CLR,0.00,0.00,VWS V14.00,2013-03-08 08:51:00,
2013-03-08 02:52:00,23.7,21.2,30.33,SE,128,2.0,6.0,90,0.00,,CLR,0.00,0.00,VWS V14.00,2013-03-08 08:52:00,
2013-03-08 02:55:00,23.6,21.1,30.33,ESE,119,4.0,6.0,90,0.00,,,0.00,0.00,VWS V14.00,2013-03-08 08:55:00,
2013-03-08 02:56:00,23.5,21.0,30.33,ESE,109,1.0,4.0,90,0.00,,CLR,0.00,0.00,VWS V14.00,2013-03-08 08:56:00,
2013-03-08 02:57:00,23.5,21.0,30.33,ESE,109,1.0,4.0,90,0.00,,CLR,0.00,0.00,VWS V14.00,2013-03-08 08:57:00,
2013-03-08 03:00:00,23.5,21.0,30.33,ESE,109,1.0,4.0,90,0.00,,,0.00,0.00,VWS V14.00,2013-03-08 09:00:00,
2013-03-08 03:01:00,23.4,20.9,30.33,ESE,107,2.0,4.0,90,0.00,,CLR,0.00,0.00,VWS V14.00,2013-03-08 09:01:00,
2013-03-08 03:02:00,23.3,20.8,30.33,ESE,107,1.0,4.0,90,0.00,,CLR,0.00,0.00,VWS V14.00,2013-03-08 09:02:00,
2013-03-08 03:05:00,23.3,20.8,30.33,ESE,107,1.0,4.0,90,0.00,,,0.00,0.00,VWS V14.00,2013-03-08 09:05:00,
2013-03-08 03:06:00,23.3,20.8,30.33,ESE,107,2.0,5.0,90,0.00,,CLR,0.00,0.00,VWS V14.00,2013-03-08 09:06:00,
2013-03-08 03:07:00,23.2,20.7,30.33,ESE,108,4.0,5.0,90,0.00,,CLR,0.00,0.00,VWS V14.00,2013-03-08 09:07:00,
2013-03-08 03:08:00,23.2,21.0,30.33,ESE,107,1.0,5.0,91,0.00,,CLR,0.00,0.00,VWS V14.00,2013-03-08 09:08:00,
2013-03-08 03:10:00,23.2,21.0,30.33,ESE,107,2.0,5.0,91,0.00,,,0.00,0.00,VWS V14.00,2013-03-08 09:10:00,
2013-03-08 03:12:00,23.1,20.9,30.32,ESE,107,1.0,2.0,91,0.00,,CLR,0.00,0.00,VWS V14.00,2013-03-08 09:12:00,
2013-03-08 03:13:00,23.1,20.9,30.32,ESE,108,1.0,4.0,91,0.00,,CLR,0.00,0.00,VWS V14.00,2013-03-08 09:13:00,
2013-03-08 03:15:00,23.1,20.9,30.32,ESE,107,1.0,4.0,91,0.00,,,0.00,0.00,VWS V14.00,2013-03-08 09:15:00,
2013-03-08 03:17:00,23.0,20.8,30.32,ESE,108,1.0,4.0,91,0.00,,CLR,0.00,0.00,VWS V14.00,2013-03-08 09:17:00,
2013-03-08 03:18:00,23.0,20.8,30.32,ESE,107,1.0,4.0,91,0.00,,CLR,0.00,0.00,VWS V14.00,2013-03-08 09:18:00,
2013-03-08 03:20:00,23.0,20.8,30.32,ESE,108,1.0,4.0,91,0.00,,,0.00,0.00,VWS V14.00,2013-03-08 09:20:00,
2013-03-08 03:22:00,23.0,20.8,30.32,ESE,108,2.0,4.0,91,0.00,,CLR,0.00,0.00,VWS V14.00,2013-03-08 09:22:00,
2013-03-08 03:23:00,23.0,20.8,30.32,ESE,117,0.0,4.0,91,0.00,,CLR,0.00,0.00,VWS V14.00,2013-03-08 09:23:00,
2013-03-08 03:25:00,22.9,20.7,30.32,ESE,117,1.0,4.0,91,0.00,,,0.00,0.00,VWS V14.00,2013-03-08 09:25:00,
2013-03-08 03:27:00,23.0,21.0,30.32,ESE,104,0.0,5.0,92,0.00,,CLR,0.00,0.00,VWS V14.00,2013-03-08 09:27:00,
2013-03-08 03:28:00,23.0,21.0,30.32,ESE,103,4.0,5.0,92,0.00,,CLR,0.00,0.00,VWS V14.00,2013-03-08 09:28:00,
2013-03-08 03:30:00,23.0,21.0,30.32,ESE,103,2.0,5.0,92,0.00,,,0.00,0.00,VWS V14.00,2013-03-08 09:30:00,
2013-03-08 03:32:00,22.9,20.9,30.32,ESE,103,1.0,5.0,92,0.00,,CLR,0.00,0.00,VWS V14.00,2013-03-08 09:32:00,
2013-03-08 03:33:00,23.0,21.0,30.32,ESE,103,0.0,5.0,92,0.00,,CLR,0.00,0.00,VWS V14.00,2013-03-08 09:33:00,
2013-03-08 03:35:00,22.9,20.7,30.32,ESE,103,2.0,5.0,91,0.00,,,0.00,0.00,VWS V14.00,2013-03-08 09:35:00,
2013-03-08 03:37:00,22.9,20.7,30.32,ESE,103,2.0,4.0,91,0.00,,CLR,0.00,0.00,VWS V14.00,2013-03-08 09:37:00,
2013-03-08 03:38:00,22.9,20.7,30.32,ESE,103,2.0,4.0,91,0.00,,CLR,0.00,0.00,VWS V14.00,2013-03-08 09:38:00,
2013-03-08 03:40:00,22.9,20.7,30.32,ESE,103,1.0,4.0,91,0.00,,,0.00,0.00,VWS V14.00,2013-03-08 09:40:00,
2013-03-08 03:43:00,22.9,20.9,30.31,ESE,103,2.0,4.0,92,0.00,,CLR,0.00,0.00,VWS V14.00,2013-03-08 09:43:00,
2013-03-08 03:45:00,23.0,21.0,30.31,ESE,105,4.0,5.0,92,0.00,,,0.00,0.00,VWS V14.00,2013-03-08 09:45:00,
2013-03-08 03:48:00,23.0,21.0,30.31,SE,130,4.0,5.0,92,0.00,,CLR,0.00,0.00,VWS V14.00,2013-03-08 09:48:00,
2013-03-08 03:50:00,23.1,21.1,30.31,East,98,2.0,5.0,92,0.00,,,0.00,0.00,VWS V14.00,2013-03-08 09:50:00,
2013-03-08 03:53:00,23.1,21.1,30.31,SE,126,4.0,5.0,92,0.00,,CLR,0.00,0.00,VWS V14.00,2013-03-08 09:53:00,
2013-03-08 03:55:00,23.1,21.1,30.31,SE,126,2.0,5.0,92,0.00,,,0.00,0.00,VWS V14.00,2013-03-08 09:55:00,
2013-03-08 03:58:00,23.1,21.1,30.31,ESE,112,1.0,4.0,92,0.00,,CLR,0.00,0.00,VWS V14.00,2013-03-08 09:58:00,
2013-03-08 03:59:00,23.1,21.1,30.31,ESE,112,1.0,1.0,92,0.00,,CLR,0.00,0.00,VWS V14.00,2013-03-08 09:59:00,
2013-03-08 04:00:00,23.1,21.1,30.31,ESE,112,2.0,4.0,92,0.00,,,0.00,0.00,VWS V14.00,2013-03-08 10:00:00,
2013-03-08 04:03:00,23.0,21.0,30.32,East,98,0.0,4.0,92,0.00,,CLR,0.00,0.00,VWS V14.00,2013-03-08 10:03:00,
2013-03-08 04:04:00,23.0,21.0,30.32,East,98,0.0,0.0,92,0.00,,CLR,0.00,0.00,VWS V14.00,2013-03-08 10:04:00,
2013-03-08 04:05:00,23.0,21.0,30.32,East,98,0.0,4.0,92,0.00,,,0.00,0.00,VWS V14.00,2013-03-08 10:05:00,
2013-03-08 04:08:00,22.9,20.7,30.32,East,86,2.0,4.0,91,0.00,,CLR,0.00,0.00,VWS V14.00,2013-03-08 10:08:00,
2013-03-08 04:09:00,22.9,20.7,30.32,East,86,1.0,1.0,91,0.00,,CLR,0.00,0.00,VWS V14.00,2013-03-08 10:09:00,
2013-03-08 04:10:00,22.8,20.6,30.32,East,86,2.0,3.0,91,0.00,,CLR,0.00,0.00,VWS V14.00,2013-03-08 10:10:00,
2013-03-08 04:13:00,22.7,20.7,30.32,ESE,103,2.0,3.0,92,0.00,,CLR,0.00,0.00,VWS V14.00,2013-03-08 10:13:00,
2013-03-08 04:14:00,22.7,20.7,30.32,ESE,103,2.0,3.0,92,0.00,,CLR,0.00,0.00,VWS V14.00,2013-03-08 10:14:00,
2013-03-08 04:15:00,22.7,20.7,30.32,ESE,103,1.0,2.0,92,0.00,,CLR,0.00,0.00,VWS V14.00,2013-03-08 10:15:00,
2013-03-08 04:18:00,22.6,20.6,30.32,ESE,103,2.0,4.0,92,0.00,,CLR,0.00,0.00,VWS V14.00,2013-03-08 10:18:00,
2013-03-08 04:19:00,22.6,20.6,30.32,ESE,103,1.0,4.0,92,0.00,,CLR,0.00,0.00,VWS V14.00,2013-03-08 10:19:00,
2013-03-08 04:20:00,22.6,20.6,30.32,ESE,103,1.0,4.0,92,0.00,,CLR,0.00,0.00,VWS V14.00,2013-03-08 10:20:00,
2013-03-08 04:23:00,22.6,20.6,30.32,ESE,103,2.0,4.0,92,0.00,,CLR,0.00,0.00,VWS V14.00,2013-03-08 10:23:00,
2013-03-08 04:24:00,22.7,20.7,30.32,ESE,103,1.0,1.0,92,0.00,,CLR,0.00,0.00,VWS V14.00,2013-03-08 10:24:00,
2013-03-08 04:25:00,22.7,20.7,30.32,ESE,103,4.0,4.0,92,0.00,,CLR,0.00,0.00,VWS V14.00,2013-03-08 10:25:00,
2013-03-08 04:28:00,22.7,21.0,30.32,ESE,118,2.0,5.0,93,0.00,,CLR,0.00,0.00,VWS V14.00,2013-03-08 10:28:00,
2013-03-08 04:29:00,22.8,21.1,30.32,ESE,119,2.0,2.0,93,0.00,,CLR,0.00,0.00,VWS V14.00,2013-03-08 10:29:00,
2013-03-08 04:30:00,22.8,21.1,30.32,ESE,119,2.0,5.0,93,0.00,,,0.00,0.00,VWS V14.00,2013-03-08 10:30:00,
2013-03-08 04:31:00,22.9,21.2,30.32,ESE,119,2.0,4.0,93,0.00,,CLR,0.00,0.00,VWS V14.00,2013-03-08 10:31:00,
2013-03-08 04:34:00,22.9,20.9,30.32,ESE,119,2.0,4.0,92,0.00,,CLR,0.00,0.00,VWS V14.00,2013-03-08 10:34:00,
2013-03-08 04:35:00,22.9,20.9,30.32,ESE,119,2.0,4.0,92,0.00,,,0.00,0.00,VWS V14.00,2013-03-08 10:35:00,
2013-03-08 04:37:00,22.9,20.9,30.32,ESE,119,1.0,2.0,92,0.00,,CLR,0.00,0.00,VWS V14.00,2013-03-08 10:37:00,
2013-03-08 04:39:00,22.9,20.9,30.32,ESE,119,2.0,4.0,92,0.00,,CLR,0.00,0.00,VWS V14.00,2013-03-08 10:39:00,
2013-03-08 04:40:00,22.9,20.9,30.32,ESE,118,1.0,4.0,92,0.00,,,0.00,0.00,VWS V14.00,2013-03-08 10:40:00,
2013-03-08 04:42:00,22.9,20.9,30.32,ESE,118,0.0,5.0,92,0.00,,CLR,0.00,0.00,VWS V14.00,2013-03-08 10:42:00,
2013-03-08 04:44:00,22.8,20.8,30.32,ESE,119,1.0,5.0,92,0.00,,CLR,0.00,0.00,VWS V14.00,2013-03-08 10:44:00,
2013-03-08 04:45:00,22.8,20.8,30.32,ESE,118,2.0,2.0,92,0.00,,CLR,0.00,0.00,VWS V14.00,2013-03-08 10:45:00,
2013-03-08 04:47:00,22.8,20.8,30.32,ESE,119,2.0,4.0,92,0.00,,CLR,0.00,0.00,VWS V14.00,2013-03-08 10:47:00,
2013-03-08 04:49:00,22.8,20.8,30.32,ESE,119,1.0,1.0,92,0.00,,CLR,0.00,0.00,VWS V14.00,2013-03-08 10:49:00,
2013-03-08 04:50:00,22.8,21.1,30.32,ESE,119,4.0,5.0,93,0.00,,CLR,0.00,0.00,VWS V14.00,2013-03-08 10:50:00,
2013-03-08 04:52:00,22.9,21.2,30.32,ESE,121,2.0,5.0,93,0.00,,CLR,0.00,0.00,VWS V14.00,2013-03-08 10:52:00,
2013-03-08 04:54:00,23.0,21.3,30.32,ESE,121,2.0,2.0,93,0.00,,CLR,0.00,0.00,VWS V14.00,2013-03-08 10:54:00,
2013-03-08 04:55:00,23.0,21.3,30.32,ESE,121,2.0,4.0,93,0.00,,CLR,0.00,0.00,VWS V14.00,2013-03-08 10:55:00,
2013-03-08 04:57:00,23.1,21.4,30.32,ESE,102,4.0,5.0,93,0.00,,CLR,0.00,0.00,VWS V14.00,2013-03-08 10:57:00,
2013-03-08 04:59:00,23.1,21.4,30.32,ESE,111,2.0,2.0,93,0.00,,CLR,0.00,0.00,VWS V14.00,2013-03-08 10:59:00,
2013-03-08 05:00:00,23.1,21.4,30.32,East,98,4.0,5.0,93,0.00,,,0.00,0.00,VWS V14.00,2013-03-08 11:00:00,
2013-03-08 05:03:00,23.2,21.5,30.32,SE,131,2.0,5.0,93,0.00,,,0.00,0.00,VWS V14.00,2013-03-08 11:03:00,
2013-03-08 05:04:00,23.2,21.5,30.32,SE,131,0.0,2.0,93,0.00,,,0.00,0.00,VWS V14.00,2013-03-08 11:04:00,
2013-03-08 05:05:00,23.2,21.5,30.32,SE,131,1.0,2.0,93,0.00,,,0.00,0.00,VWS V14.00,2013-03-08 11:05:00,
2013-03-08 05:08:00,23.3,21.6,30.32,ESE,115,2.0,6.0,93,0.00,,,0.00,0.00,VWS V14.00,2013-03-08 11:08:00,
2013-03-08 05:09:00,23.3,21.6,30.32,ESE,115,1.0,4.0,93,0.00,,,0.00,0.00,VWS V14.00,2013-03-08 11:09:00,
2013-03-08 05:10:00,23.3,21.6,30.32,ESE,115,2.0,4.0,93,0.00,,,0.00,0.00,VWS V14.00,2013-03-08 11:10:00,
2013-03-08 05:14:00,23.4,21.7,30.32,SE,137,2.0,4.0,93,0.00,,,0.00,0.00,VWS V14.00,2013-03-08 11:14:00,
2013-03-08 05:15:00,23.4,21.7,30.32,SE,137,2.0,4.0,93,0.00,,,0.00,0.00,VWS V14.00,2013-03-08 11:15:00,
2013-03-08 05:16:00,23.4,21.7,30.32,SE,137,2.0,4.0,93,0.00,,,0.00,0.00,VWS V14.00,2013-03-08 11:16:00,
2013-03-08 05:19:00,23.4,21.7,30.32,SE,136,2.0,5.0,93,0.00,,,0.00,0.00,VWS V14.00,2013-03-08 11:19:00,
2013-03-08 05:20:00,23.4,21.7,30.32,SE,135,5.0,5.0,93,0.00,,,0.00,0.00,VWS V14.00,2013-03-08 11:20:00,
2013-03-08 05:21:00,23.5,21.8,30.32,SE,134,4.0,5.0,93,0.00,,,0.00,0.00,VWS V14.00,2013-03-08 11:21:00,
2013-03-08 05:25:00,23.5,21.8,30.33,SE,136,4.0,6.0,93,0.00,,,0.00,0.00,VWS V14.00,2013-03-08 11:25:00,
2013-03-08 05:26:00,23.5,21.8,30.33,SE,135,5.0,6.0,93,0.00,,,0.00,0.00,VWS V14.00,2013-03-08 11:26:00,
2013-03-08 05:30:00,23.5,21.8,30.32,SE,132,2.0,6.0,93,0.00,,,0.00,0.00,VWS V14.00,2013-03-08 11:30:00,
2013-03-08 05:31:00,23.5,21.8,30.32,SE,132,4.0,6.0,93,0.00,,,0.00,0.00,VWS V14.00,2013-03-08 11:31:00,
2013-03-08 05:35:00,23.5,21.8,30.32,ESE,116,2.0,5.0,93,0.00,,,0.00,0.00,VWS V14.00,2013-03-08 11:35:00,
2013-03-08 05:36:00,23.5,21.8,30.32,East,100,4.0,6.0,93,0.00,,,0.00,0.00,VWS V14.00,2013-03-08 11:36:00,
2013-03-08 05:40:00,23.5,21.8,30.32,ESE,123,2.0,4.0,93,0.00,,,0.00,0.00,VWS V14.00,2013-03-08 11:40:00,
2013-03-08 05:41:00,23.5,21.8,30.32,ESE,123,2.0,4.0,93,0.00,,,0.00,0.00,VWS V14.00,2013-03-08 11:41:00,
2013-03-08 05:42:00,23.5,21.8,30.32,ESE,118,4.0,5.0,93,0.00,,,0.00,0.00,VWS V14.00,2013-03-08 11:42:00,
2013-03-08 05:45:00,23.5,21.8,30.32,SE,129,5.0,5.0,93,0.00,,,0.00,0.00,VWS V14.00,2013-03-08 11:45:00,
2013-03-08 05:46:00,23.5,21.8,30.32,SE,129,4.0,5.0,93,0.00,,,0.00,0.00,VWS V14.00,2013-03-08 11:46:00,
2013-03-08 05:47:00,23.5,21.8,30.32,SE,129,2.0,5.0,93,0.00,,,0.00,0.00,VWS V14.00,2013-03-08 11:47:00,
2013-03-08 05:50:00,23.5,21.8,30.32,SE,130,4.0,5.0,93,0.00,,,0.00,0.00,VWS V14.00,2013-03-08 11:50:00,
2013-03-08 05:51:00,23.5,21.8,30.32,ESE,105,2.0,5.0,93,0.00,,,0.00,0.00,VWS V14.00,2013-03-08 11:51:00,
2013-03-08 05:52:00,23.5,21.8,30.32,SE,130,4.0,5.0,93,0.00,,,0.00,0.00,VWS V14.00,2013-03-08 11:52:00,
2013-03-08 05:55:00,23.5,21.8,30.32,ESE,111,4.0,5.0,93,0.00,,,0.00,0.00,VWS V14.00,2013-03-08 11:55:00,
2013-03-08 05:56:00,23.5,21.8,30.32,ESE,119,4.0,5.0,93,0.00,,,0.00,0.00,VWS V14.00,2013-03-08 11:56:00,
2013-03-08 05:57:00,23.5,21.8,30.32,ESE,122,4.0,5.0,93,0.00,,,0.00,0.00,VWS V14.00,2013-03-08 11:57:00,
2013-03-08 06:00:00,23.4,21.7,30.32,ESE,111,2.0,5.0,93,0.00,,,0.00,0.00,VWS V14.00,2013-03-08 12:00:00,
2013-03-08 06:01:00,23.4,21.7,30.32,SE,126,4.0,6.0,93,0.00,,,0.00,0.00,VWS V14.00,2013-03-08 12:01:00,
2013-03-08 06:02:00,23.4,21.7,30.32,ESE,123,2.0,6.0,93,0.00,,,0.00,0.00,VWS V14.00,2013-03-08 12:02:00,
2013-03-08 06:05:00,23.4,21.7,30.32,ESE,119,4.0,6.0,93,0.00,,,0.00,0.00,VWS V14.00,2013-03-08 12:05:00,
2013-03-08 06:06:00,23.4,21.7,30.32,SE,130,4.0,7.0,93,0.00,,,0.00,0.00,VWS V14.00,2013-03-08 12:06:00,
2013-03-08 06:07:00,23.4,21.7,30.32,SE,130,2.0,7.0,93,0.00,,,0.00,0.00,VWS V14.00,2013-03-08 12:07:00,
2013-03-08 06:10:00,23.4,21.7,30.32,SE,139,4.0,7.0,93,0.00,,,0.00,0.00,VWS V14.00,2013-03-08 12:10:00,
2013-03-08 06:11:00,23.4,21.7,30.31,SE,124,2.0,5.0,93,0.00,,,0.00,0.00,VWS V14.00,2013-03-08 12:11:00,
2013-03-08 06:12:00,23.4,21.7,30.31,SE,139,4.0,7.0,93,0.00,,,0.00,0.00,VWS V14.00,2013-03-08 12:12:00,
2013-03-08 06:15:00,23.4,21.7,30.31,ESE,117,2.0,7.0,93,0.00,,,0.00,0.00,VWS V14.00,2013-03-08 12:15:00,
2013-03-08 06:16:00,23.4,21.7,30.31,ESE,108,1.0,5.0,93,0.00,,,0.00,0.00,VWS V14.00,2013-03-08 12:16:00,
2013-03-08 06:17:00,23.4,21.7,30.31,East,83,3.0,6.0,93,0.00,,,0.00,0.00,VWS V14.00,2013-03-08 12:17:00,
2013-03-08 06:20:00,23.4,21.7,30.32,SE,134,4.0,6.0,93,0.00,,,0.00,0.00,VWS V14.00,2013-03-08 12:20:00,
2013-03-08 06:21:00,23.4,21.7,30.32,ESE,122,2.0,7.0,93,0.00,,,0.00,0.00,VWS V14.00,2013-03-08 12:21:00,
2013-03-08 06:22:00,23.4,21.7,30.32,ESE,114,4.0,7.0,93,0.00,,,0.00,0.00,VWS V14.00,2013-03-08 12:22:00,
2013-03-08 06:23:00,23.4,21.7,30.32,SE,131,5.0,7.0,93,0.00,,,0.00,0.00,VWS V14.00,2013-03-08 12:23:00,
2013-03-08 06:25:00,23.5,21.8,30.32,SE,138,5.0,7.0,93,0.00,,,0.00,0.00,VWS V14.00,2013-03-08 12:25:00,
2013-03-08 06:26:00,23.5,21.8,30.32,ESE,121,2.0,6.0,93,0.00,,,0.00,0.00,VWS V14.00,2013-03-08 12:26:00,
2013-03-08 06:27:00,23.5,21.8,30.32,SE,131,2.0,6.0,93,0.00,,,0.00,0.00,VWS V14.00,2013-03-08 12:27:00,
2013-03-08 06:28:00,23.5,21.8,30.32,ESE,111,2.0,6.0,93,0.00,,,0.00,0.00,VWS V14.00,2013-03-08 12:28:00,
2013-03-08 06:30:00,23.5,21.8,30.31,SE,126,2.0,6.0,93,0.00,,,0.00,0.00,VWS V14.00,2013-03-08 12:30:00,
2013-03-08 06:31:00,23.5,21.8,30.31,SE,128,2.0,5.0,93,0.00,,,0.00,0.00,VWS V14.00,2013-03-08 12:31:00,
2013-03-08 06:32:00,23.5,21.8,30.31,ESE,123,2.0,5.0,93,0.00,,,0.00,0.00,VWS V14.00,2013-03-08 12:32:00,
2013-03-08 06:33:00,23.5,21.8,30.31,East,92,4.0,6.0,93,0.00,,,0.00,0.00,VWS V14.00,2013-03-08 12:33:00,
2013-03-08 06:35:00,23.5,21.8,30.31,ESE,115,5.0,6.0,93,0.00,,,0.00,0.00,VWS V14.00,2013-03-08 12:35:00,
2013-03-08 06:36:00,23.5,21.8,30.31,SE,130,1.0,5.0,93,0.00,,,0.00,0.00,VWS V14.00,2013-03-08 12:36:00,
2013-03-08 06:37:00,23.5,21.8,30.31,ESE,122,5.0,6.0,93,0.00,,,0.00,0.00,VWS V14.00,2013-03-08 12:37:00,
2013-03-08 06:38:00,23.5,21.8,30.31,ESE,106,2.0,6.0,93,0.00,,,0.00,0.00,VWS V14.00,2013-03-08 12:38:00,
2013-03-08 06:40:00,23.5,21.8,30.31,SE,128,2.0,6.0,93,0.00,,,0.00,0.00,VWS V14.00,2013-03-08 12:40:00,
2013-03-08 06:41:00,23.5,21.8,30.31,ESE,109,2.0,6.0,93,0.00,,,0.00,0.00,VWS V14.00,2013-03-08 12:41:00,
2013-03-08 06:42:00,23.5,21.8,30.31,SE,130,4.0,6.0,93,0.00,,,0.00,5.00,VWS V14.00,2013-03-08 12:42:00,
2013-03-08 06:43:00,23.5,21.8,30.31,SE,126,4.0,6.0,93,0.00,,,0.00,5.00,VWS V14.00,2013-03-08 12:43:00,
2013-03-08 06:45:00,23.6,21.9,30.31,ESE,120,2.0,6.0,93,0.00,,,0.00,5.00,VWS V14.00,2013-03-08 12:45:00,
2013-03-08 06:47:00,23.5,21.8,30.31,SE,141,4.0,6.0,93,0.00,,,0.00,9.00,VWS V14.00,2013-03-08 12:47:00,
2013-03-08 06:48:00,23.6,21.9,30.31,SE,141,2.0,6.0,93,0.00,,,0.00,9.00,VWS V14.00,2013-03-08 12:48:00,
2013-03-08 06:50:00,23.6,21.9,30.31,East,92,4.0,6.0,93,0.00,,,0.00,11.00,VWS V14.00,2013-03-08 12:50:00,
2013-03-08 06:52:00,23.6,21.9,30.31,SE,135,4.0,6.0,93,0.00,,,0.00,12.00,VWS V14.00,2013-03-08 12:52:00,
2013-03-08 06:53:00,23.6,21.9,30.31,ESE,109,0.0,6.0,93,0.00,,,0.00,14.00,VWS V14.00,2013-03-08 12:53:00,
2013-03-08 06:54:00,23.6,21.9,30.31,ESE,111,2.0,6.0,93,0.00,,,0.00,14.00,VWS V14.00,2013-03-08 12:54:00,
2013-03-08 06:55:00,23.6,21.9,30.31,ESE,113,4.0,6.0,93,0.00,,,0.00,14.00,VWS V14.00,2013-03-08 12:55:00,
2013-03-08 06:57:00,23.6,21.9,30.31,ESE,111,5.0,6.0,93,0.00,,,0.00,18.00,VWS V14.00,2013-03-08 12:57:00,
2013-03-08 06:58:00,23.6,21.9,30.31,ESE,121,4.0,6.0,93,0.00,,,0.00,19.00,VWS V14.00,2013-03-08 12:58:00,
2013-03-08 06:59:00,23.6,21.9,30.31,ESE,121,1.0,6.0,93,0.00,,,0.00,19.00,VWS V14.00,2013-03-08 12:59:00,
2013-03-08 07:00:00,23.6,21.9,30.31,ESE,121,1.0,6.0,93,0.00,,,0.00,19.00,VWS V14.00,2013-03-08 13:00:00,
2013-03-08 07:02:00,23.7,22.0,30.31,ESE,110,4.0,5.0,93,0.00,,,0.00,23.00,VWS V14.00,2013-03-08 13:02:00,
2013-03-08 07:03:00,23.7,22.0,30.31,East,100,5.0,5.0,93,0.00,,,0.00,25.00,VWS V14.00,2013-03-08 13:03:00,
2013-03-08 07:04:00,23.7,22.2,30.31,ESE,123,2.0,4.0,94,0.00,,,0.00,25.00,VWS V14.00,2013-03-08 13:04:00,
2013-03-08 07:05:00,23.7,22.0,30.31,ESE,123,4.0,5.0,93,0.00,,,0.00,25.00,VWS V14.00,2013-03-08 13:05:00,
2013-03-08 07:07:00,23.8,22.3,30.31,East,92,2.0,6.0,94,0.00,,,0.00,28.00,VWS V14.00,2013-03-08 13:07:00,
2013-03-08 07:08:00,23.8,22.3,30.31,SE,127,4.0,6.0,94,0.00,,,0.00,30.00,VWS V14.00,2013-03-08 13:08:00,
2013-03-08 07:09:00,23.8,22.3,30.31,ESE,121,4.0,5.0,94,0.00,,,0.00,30.00,VWS V14.00,2013-03-08 13:09:00,
2013-03-08 07:10:00,23.9,22.4,30.31,ESE,120,5.0,6.0,94,0.00,,,0.00,30.00,VWS V14.00,2013-03-08 13:10:00,
2013-03-08 07:12:00,23.9,22.4,30.30,ESE,123,4.0,8.0,94,0.00,,,0.00,32.00,VWS V14.00,2013-03-08 13:12:00,
2013-03-08 07:13:00,24.0,22.5,30.31,ESE,118,4.0,8.0,94,0.00,,,0.00,35.00,VWS V14.00,2013-03-08 13:13:00,
2013-03-08 07:14:00,24.0,22.5,30.31,SE,136,5.0,8.0,94,0.00,,,0.00,37.00,VWS V14.00,2013-03-08 13:14:00,
2013-03-08 07:15:00,24.0,22.5,30.31,SE,128,8.0,8.0,94,0.00,,,0.00,37.00,VWS V14.00,2013-03-08 13:15:00,
2013-03-08 07:17:00,24.1,22.6,30.30,SE,130,4.0,8.0,94,0.00,,,0.00,40.00,VWS V14.00,2013-03-08 13:17:00,
2013-03-08 07:19:00,24.2,22.7,30.31,SSE,165,4.0,9.0,94,0.00,,,0.00,42.00,VWS V14.00,2013-03-08 13:19:00,
2013-03-08 07:20:00,24.2,22.7,30.31,SE,131,5.0,7.0,94,0.00,,,0.00,42.00,VWS V14.00,2013-03-08 13:20:00,
2013-03-08 07:22:00,24.2,22.5,30.30,SE,134,2.0,7.0,93,0.00,,,0.00,46.00,VWS V14.00,2013-03-08 13:22:00,
2013-03-08 07:24:00,24.3,22.6,30.30,SE,128,6.0,8.0,93,0.00,,,0.00,46.00,VWS V14.00,2013-03-08 13:24:00,
2013-03-08 07:25:00,24.3,22.6,30.31,SE,128,5.0,6.0,93,0.00,,,0.00,47.00,VWS V14.00,2013-03-08 13:25:00,
2013-03-08 07:27:00,24.3,22.8,30.31,East,87,8.0,9.0,94,0.00,,,0.00,51.00,VWS V14.00,2013-03-08 13:27:00,
2013-03-08 07:29:00,24.4,22.9,30.31,SE,128,5.0,5.0,94,0.00,,,0.00,56.00,VWS V14.00,2013-03-08 13:29:00,
2013-03-08 07:30:00,24.5,23.0,30.30,SE,128,4.0,6.0,94,0.00,,,0.00,58.00,VWS V14.00,2013-03-08 13:30:00,
2013-03-08 07:32:00,24.5,22.8,30.30,ESE,110,4.0,8.0,93,0.00,,,0.00,60.00,VWS V14.00,2013-03-08 13:32:00,
2013-03-08 07:34:00,24.6,22.9,30.31,East,97,4.0,4.0,93,0.00,,,0.00,62.00,VWS V14.00,2013-03-08 13:34:00,
2013-03-08 07:35:00,24.6,22.9,30.31,ESE,123,2.0,4.0,93,0.00,,,0.00,60.00,VWS V14.00,2013-03-08 13:35:00,
2013-03-08 07:37:00,24.7,23.0,30.31,ESE,115,2.0,6.0,93,0.00,,,0.00,72.00,VWS V14.00,2013-03-08 13:37:00,
2013-03-08 07:39:00,24.8,23.1,30.31,SE,124,5.0,6.0,93,0.00,,,0.00,69.00,VWS V14.00,2013-03-08 13:39:00,
2013-03-08 07:40:00,24.8,23.1,30.31,SE,128,6.0,6.0,93,0.00,,,0.00,65.00,VWS V14.00,2013-03-08 13:40:00,
2013-03-08 07:41:00,24.8,23.1,30.31,ESE,112,4.0,8.0,93,0.00,,,0.00,67.00,VWS V14.00,2013-03-08 13:41:00,
2013-03-08 07:43:00,24.9,23.2,30.31,ESE,120,9.0,9.0,93,0.00,,,0.00,72.00,VWS V14.00,2013-03-08 13:43:00,
2013-03-08 07:44:00,24.9,23.2,30.31,ESE,121,5.0,6.0,93,0.00,,,0.00,79.00,VWS V14.00,2013-03-08 13:44:00,
2013-03-08 07:45:00,25.0,23.3,30.31,SE,139,5.0,6.0,93,0.00,,,0.00,79.00,VWS V14.00,2013-03-08 13:45:00,
2013-03-08 07:46:00,25.0,23.3,30.31,ESE,115,6.0,7.0,93,0.00,,,0.00,76.00,VWS V14.00,2013-03-08 13:46:00,
2013-03-08 07:48:00,25.1,23.4,30.32,East,99,6.0,7.0,93,0.00,,,0.00,88.00,VWS V14.00,2013-03-08 13:48:00,
2013-03-08 07:49:00,25.1,23.4,30.32,SE,134,5.0,6.0,93,0.00,,,0.00,86.00,VWS V14.00,2013-03-08 13:49:00,
2013-03-08 07:50:00,25.1,23.4,30.32,SE,142,4.0,7.0,93,0.00,,,0.00,88.00,VWS V14.00,2013-03-08 13:50:00,
2013-03-08 07:51:00,25.1,23.4,30.32,ESE,103,5.0,7.0,93,0.00,,,0.00,88.00,VWS V14.00,2013-03-08 13:51:00,
2013-03-08 07:53:00,25.2,23.5,30.32,SE,126,4.0,7.0,93,0.00,,,0.00,98.00,VWS V14.00,2013-03-08 13:53:00,
2013-03-08 07:55:00,25.3,23.6,30.32,SE,128,4.0,5.0,93,0.00,,,0.00,95.00,VWS V14.00,2013-03-08 13:55:00,
2013-03-08 07:56:00,25.3,23.6,30.32,ESE,119,1.0,5.0,93,0.00,,,0.00,139.00,VWS V14.00,2013-03-08 13:56:00,
2013-03-08 07:58:00,25.5,23.8,30.32,ESE,118,4.0,6.0,93,0.00,,,0.00,148.00,VWS V14.00,2013-03-08 13:58:00,
2013-03-08 08:00:00,25.7,24.0,30.32,ESE,119,4.0,5.0,93,0.00,,,0.00,120.00,VWS V14.00,2013-03-08 14:00:00,
2013-03-08 08:01:00,25.7,24.0,30.32,SE,139,2.0,5.0,93,0.00,,,0.00,134.00,VWS V14.00,2013-03-08 14:01:00,
2013-03-08 08:03:00,26.0,24.3,30.32,SE,126,5.0,7.0,93,0.00,,,0.00,148.00,VWS V14.00,2013-03-08 14:03:00,
2013-03-08 08:05:00,26.2,24.5,30.32,SE,128,5.0,6.0,93,0.00,,,0.00,149.00,VWS V14.00,2013-03-08 14:05:00,
2013-03-08 08:06:00,26.2,24.2,30.32,SE,128,4.0,6.0,92,0.00,,,0.00,149.00,VWS V14.00,2013-03-08 14:06:00,
2013-03-08 08:08:00,26.4,24.4,30.32,SE,128,4.0,7.0,92,0.00,,,0.00,149.00,VWS V14.00,2013-03-08 14:08:00,
2013-03-08 08:10:00,26.6,24.6,30.32,SE,141,2.0,6.0,92,0.00,,,0.00,149.00,VWS V14.00,2013-03-08 14:10:00,
2013-03-08 08:11:00,26.6,24.6,30.32,SE,140,2.0,6.0,92,0.00,,,0.00,149.00,VWS V14.00,2013-03-08 14:11:00,
2013-03-08 08:14:00,26.9,24.9,30.32,SSE,148,6.0,6.0,92,0.00,,,0.00,135.00,VWS V14.00,2013-03-08 14:14:00,
2013-03-08 08:15:00,26.9,24.9,30.32,SSE,150,5.0,6.0,92,0.00,,,0.00,135.00,VWS V14.00,2013-03-08 14:15:00,
2013-03-08 08:16:00,27.1,25.1,30.32,ESE,107,4.0,5.0,92,0.00,,,0.00,144.00,VWS V14.00,2013-03-08 14:16:00,
2013-03-08 08:19:00,27.3,25.0,30.32,ESE,116,5.0,7.0,91,0.00,,,0.00,155.00,VWS V14.00,2013-03-08 14:19:00,
2013-03-08 08:20:00,27.3,25.0,30.32,ESE,115,5.0,7.0,91,0.00,,,0.00,155.00,VWS V14.00,2013-03-08 14:20:00,
2013-03-08 08:21:00,27.4,25.1,30.32,ESE,122,5.0,6.0,91,0.00,,,0.00,153.00,VWS V14.00,2013-03-08 14:21:00,
2013-03-08 08:24:00,27.6,25.3,30.32,SE,136,5.0,5.0,91,0.00,,,0.00,135.00,VWS V14.00,2013-03-08 14:24:00,
2013-03-08 08:25:00,27.6,25.3,30.32,SE,138,4.0,7.0,91,0.00,,,0.00,128.00,VWS V14.00,2013-03-08 14:25:00,
2013-03-08 08:26:00,27.7,25.4,30.32,SE,126,5.0,6.0,91,0.00,,,0.00,144.00,VWS V14.00,2013-03-08 14:26:00,
2013-03-08 08:27:00,27.8,25.5,30.32,ESE,121,4.0,6.0,91,0.00,,,0.00,158.00,VWS V14.00,2013-03-08 14:27:00,
2013-03-08 08:29:00,27.9,25.6,30.32,ESE,113,2.0,4.0,91,0.00,,,0.00,185.00,VWS V14.00,2013-03-08 14:29:00,
2013-03-08 08:30:00,27.9,25.6,30.32,ESE,112,4.0,6.0,91,0.00,,,0.00,199.00,VWS V14.00,2013-03-08 14:30:00,
2013-03-08 08:31:00,28.0,25.7,30.32,SE,124,4.0,5.0,91,0.00,,,0.00,193.00,VWS V14.00,2013-03-08 14:31:00,
2013-03-08 08:35:00,28.3,25.8,30.31,SE,140,6.0,6.0,90,0.00,,,0.00,144.00,VWS V14.00,2013-03-08 14:35:00,
2013-03-08 08:36:00,28.4,25.9,30.32,ESE,109,4.0,7.0,90,0.00,,,0.00,202.00,VWS V14.00,2013-03-08 14:36:00,
2013-03-08 08:37:00,28.4,25.9,30.32,ESE,121,5.0,7.0,90,0.00,,,0.00,241.00,VWS V14.00,2013-03-08 14:37:00,
2013-03-08 08:40:00,28.6,26.0,30.31,East,97,4.0,8.0,90,0.00,,CLR,0.00,271.00,VWS V14.00,2013-03-08 14:40:00,
2013-03-08 08:41:00,28.7,26.1,30.31,ESE,109,2.0,8.0,90,0.00,,CLR,0.00,297.00,VWS V14.00,2013-03-08 14:41:00,
2013-03-08 08:42:00,28.8,26.2,30.31,ESE,123,5.0,8.0,90,0.00,,CLR,0.00,297.00,VWS V14.00,2013-03-08 14:42:00,
2013-03-08 08:45:00,29.1,26.5,30.31,ESE,107,5.0,6.0,90,0.00,,CLR,0.00,241.00,VWS V14.00,2013-03-08 14:45:00,
2013-03-08 08:46:00,29.2,26.6,30.32,ESE,113,4.0,6.0,90,0.00,,CLR,0.00,241.00,VWS V14.00,2013-03-08 14:46:00,
2013-03-08 08:47:00,29.3,26.7,30.32,ESE,109,2.0,6.0,90,0.00,,CLR,0.00,241.00,VWS V14.00,2013-03-08 14:47:00,
2013-03-08 08:50:00,29.6,26.8,30.32,ESE,120,2.0,5.0,89,0.00,,CLR,0.00,255.00,VWS V14.00,2013-03-08 14:50:00,
2013-03-08 08:51:00,29.6,26.8,30.32,ESE,119,1.0,5.0,89,0.00,,CLR,0.00,241.00,VWS V14.00,2013-03-08 14:51:00,
2013-03-08 08:52:00,29.7,26.9,30.32,ESE,119,1.0,5.0,89,0.00,,CLR,0.00,221.00,VWS V14.00,2013-03-08 14:52:00,
2013-03-08 08:55:00,29.9,26.8,30.32,SE,143,2.0,5.0,88,0.00,,CLR,0.00,316.00,VWS V14.00,2013-03-08 14:55:00,
2013-03-08 08:56:00,30.0,27.2,30.32,East,98,4.0,6.0,89,0.00,,CLR,0.00,316.00,VWS V14.00,2013-03-08 14:56:00,
2013-03-08 08:57:00,30.1,27.3,30.32,ESE,109,4.0,7.0,89,0.00,,CLR,0.00,278.00,VWS V14.00,2013-03-08 14:57:00,
2013-03-08 09:00:00,30.1,27.0,30.32,East,96,4.0,7.0,88,0.00,,,0.00,294.00,VWS V14.00,2013-03-08 15:00:00,
2013-03-08 09:01:00,30.2,27.1,30.32,ESE,115,4.0,5.0,88,0.00,,CLR,0.00,281.00,VWS V14.00,2013-03-08 15:01:00,
2013-03-08 09:02:00,30.3,27.2,30.32,ESE,114,4.0,6.0,88,0.00,,CLR,0.00,290.00,VWS V14.00,2013-03-08 15:02:00,
2013-03-08 09:05:00,30.4,27.3,30.32,SSE,147,1.0,6.0,88,0.00,,,0.00,336.00,VWS V14.00,2013-03-08 15:05:00,
2013-03-08 09:06:00,30.6,27.5,30.32,SE,134,4.0,5.0,88,0.00,,CLR,0.00,357.00,VWS V14.00,2013-03-08 15:06:00,
2013-03-08 09:07:00,30.7,27.6,30.31,SE,126,4.0,5.0,88,0.00,,CLR,0.00,387.00,VWS V14.00,2013-03-08 15:07:00,
2013-03-08 09:08:00,30.7,27.6,30.31,SE,129,6.0,6.0,88,0.00,,CLR,0.00,399.00,VWS V14.00,2013-03-08 15:08:00,
2013-03-08 09:10:00,30.9,27.8,30.31,SE,124,6.0,7.0,88,0.00,,,0.00,401.00,VWS V14.00,2013-03-08 15:10:00,
2013-03-08 09:11:00,31.1,28.0,30.31,ESE,123,5.0,7.0,88,0.00,,CLR,0.00,411.00,VWS V14.00,2013-03-08 15:11:00,
2013-03-08 09:12:00,31.2,28.1,30.31,East,98,4.0,7.0,88,0.00,,CLR,0.00,411.00,VWS V14.00,2013-03-08 15:12:00,
2013-03-08 09:13:00,31.2,28.1,30.31,SE,130,6.0,7.0,88,0.00,,CLR,0.00,413.00,VWS V14.00,2013-03-08 15:13:00,
2013-03-08 09:15:00,31.3,27.9,30.31,SE,124,4.0,7.0,87,0.00,,,0.00,420.00,VWS V14.00,2013-03-08 15:15:00,
2013-03-08 09:16:00,31.5,28.1,30.31,ESE,115,4.0,8.0,87,0.00,,CLR,0.00,425.00,VWS V14.00,2013-03-08 15:16:00,
2013-03-08 09:17:00,31.7,28.3,30.31,ESE,121,6.0,8.0,87,0.00,,CLR,0.00,429.00,VWS V14.00,2013-03-08 15:17:00,
2013-03-08 09:18:00,31.8,28.4,30.31,SE,128,6.0,8.0,87,0.00,,CLR,0.00,429.00,VWS V14.00,2013-03-08 15:18:00,
2013-03-08 09:20:00,31.9,28.5,30.31,East,95,4.0,8.0,87,0.00,,,0.00,432.00,VWS V14.00,2013-03-08 15:20:00,
2013-03-08 09:21:00,32.1,28.7,30.31,East,94,4.0,6.0,87,0.00,,CLR,0.00,432.00,VWS V14.00,2013-03-08 15:21:00,
2013-03-08 09:22:00,32.3,28.9,30.31,ESE,117,5.0,9.0,87,0.00,,CLR,0.00,432.00,VWS V14.00,2013-03-08 15:22:00,
2013-03-08 09:23:00,32.3,28.9,30.31,SE,142,4.0,9.0,87,0.00,,CLR,0.00,438.00,VWS V14.00,2013-03-08 15:23:00,
2013-03-08 09:25:00,32.4,29.0,30.31,ESE,122,6.0,9.0,87,0.00,,,0.00,446.00,VWS V14.00,2013-03-08 15:25:00,
2013-03-08 09:26:00,32.5,28.8,30.30,SE,138,6.0,9.0,86,0.00,,CLR,0.00,454.00,VWS V14.00,2013-03-08 15:26:00,
2013-03-08 09:27:00,32.5,28.8,30.31,SE,128,6.0,9.0,86,0.00,,CLR,0.00,454.00,VWS V14.00,2013-03-08 15:27:00,
2013-03-08 09:28:00,32.6,28.9,30.31,SE,144,2.0,9.0,86,0.00,,CLR,0.00,455.00,VWS V14.00,2013-03-08 15:28:00,
2013-03-08 09:29:00,32.6,28.9,30.31,SE,128,7.0,7.0,86,0.00,,CLR,0.00,448.00,VWS V14.00,2013-03-08 15:29:00,
2013-03-08 09:30:00,32.6,28.9,30.31,East,91,5.0,9.0,86,0.00,,,0.00,448.00,VWS V14.00,2013-03-08 15:30:00,
2013-03-08 09:31:00,32.8,29.1,30.31,ESE,122,4.0,7.0,86,0.00,,CLR,0.00,415.00,VWS V14.00,2013-03-08 15:31:00,
2013-03-08 09:32:00,32.9,29.2,30.31,ESE,120,6.0,7.0,86,0.00,,CLR,0.00,376.00,VWS V14.00,2013-03-08 15:32:00,
2013-03-08 09:33:00,33.0,29.3,30.31,ESE,120,1.0,8.0,86,0.00,,CLR,0.00,381.00,VWS V14.00,2013-03-08 15:33:00,
2013-03-08 09:34:00,33.1,29.4,30.31,East,100,5.0,5.0,86,0.00,,CLR,0.00,399.00,VWS V14.00,2013-03-08 15:34:00,
2013-03-08 09:35:00,33.1,29.4,30.31,East,98,5.0,8.0,86,0.00,,,0.00,381.00,VWS V14.00,2013-03-08 15:35:00,
2013-03-08 09:36:00,33.3,29.6,30.31,SE,131,8.0,8.0,86,0.00,,CLR,0.00,376.00,VWS V14.00,2013-03-08 15:36:00,
2013-03-08 09:38:00,33.5,29.5,30.31,SE,136,6.0,8.0,85,0.00,,CLR,0.00,376.00,VWS V14.00,2013-03-08 15:38:00,
2013-03-08 09:39:00,33.5,29.5,30.31,SE,137,5.0,5.0,85,0.00,,CLR,0.00,378.00,VWS V14.00,2013-03-08 15:39:00,
2013-03-08 09:40:00,33.5,29.5,30.31,SE,136,5.0,8.0,85,0.00,,,0.00,360.00,VWS V14.00,2013-03-08 15:40:00,
2013-03-08 09:41:00,33.8,29.8,30.31,SE,138,5.0,6.0,85,0.00,,CLR,0.00,374.00,VWS V14.00,2013-03-08 15:41:00,
2013-03-08 09:43:00,33.9,29.9,30.31,SE,138,7.0,7.0,85,0.00,,CLR,0.00,383.00,VWS V14.00,2013-03-08 15:43:00,
2013-03-08 09:44:00,34.0,30.0,30.31,ESE,121,7.0,8.0,85,0.00,,CLR,0.00,403.00,VWS V14.00,2013-03-08 15:44:00,
2013-03-08 09:45:00,34.0,29.7,30.31,ESE,122,6.0,8.0,84,0.00,,,0.00,403.00,VWS V14.00,2013-03-08 15:45:00,
2013-03-08 09:47:00,34.3,30.0,30.31,SE,130,4.0,11.0,84,0.00,,CLR,0.00,443.00,VWS V14.00,2013-03-08 15:47:00,
2013-03-08 09:48:00,34.4,30.1,30.31,SE,140,5.0,11.0,84,0.00,,CLR,0.00,350.00,VWS V14.00,2013-03-08 15:48:00,
2013-03-08 09:49:00,34.5,30.2,30.31,ESE,122,4.0,11.0,84,0.00,,CLR,0.00,274.00,VWS V14.00,2013-03-08 15:49:00,
2013-03-08 09:50:00,34.5,30.2,30.31,ESE,116,5.0,11.0,84,0.00,,,0.00,274.00,VWS V14.00,2013-03-08 15:50:00,
2013-03-08 09:52:00,34.7,30.1,30.31,SSE,151,7.0,7.0,83,0.00,,CLR,0.00,290.00,VWS V14.00,2013-03-08 15:52:00,
2013-03-08 09:53:00,34.8,30.2,30.31,SE,140,2.0,7.0,83,0.00,,CLR,0.00,413.00,VWS V14.00,2013-03-08 15:53:00,
2013-03-08 09:54:00,34.9,30.3,30.31,SE,141,5.0,7.0,83,0.00,,CLR,0.00,454.00,VWS V14.00,2013-03-08 15:54:00,
2013-03-08 09:55:00,34.9,30.3,30.31,SE,141,5.0,7.0,83,0.00,,,0.00,454.00,VWS V14.00,2013-03-08 15:55:00,
2013-03-08 09:57:00,35.1,30.5,30.31,SE,136,6.0,7.0,83,0.00,,CLR,0.00,482.00,VWS V14.00,2013-03-08 15:57:00,
2013-03-08 09:58:00,35.3,30.7,30.31,East,99,4.0,7.0,83,0.00,,CLR,0.00,446.00,VWS V14.00,2013-03-08 15:58:00,
2013-03-08 09:59:00,35.3,30.7,30.31,ESE,120,2.0,7.0,83,0.00,,CLR,0.00,448.00,VWS V14.00,2013-03-08 15:59:00,
2013-03-08 10:00:00,35.5,30.6,30.31,ESE,107,5.0,5.0,82,0.00,,CLR,0.00,446.00,VWS V14.00,2013-03-08 16:00:00,
2013-03-08 10:02:00,35.6,30.7,30.31,SE,134,6.0,6.0,82,0.00,,CLR,0.00,462.00,VWS V14.00,2013-03-08 16:02:00,
2013-03-08 10:03:00,35.7,30.8,30.31,ESE,122,6.0,7.0,82,0.00,,CLR,0.00,415.00,VWS V14.00,2013-03-08 16:03:00,
2013-03-08 10:04:00,35.7,30.8,30.30,East,86,5.0,6.0,82,0.00,,CLR,0.00,450.00,VWS V14.00,2013-03-08 16:04:00,
2013-03-08 10:05:00,35.8,30.9,30.31,ESE,115,2.0,7.0,82,0.00,,CLR,0.00,476.00,VWS V14.00,2013-03-08 16:05:00,
2013-03-08 10:07:00,35.9,31.0,30.31,East,88,5.0,8.0,82,0.00,,CLR,0.00,446.00,VWS V14.00,2013-03-08 16:07:00,
2013-03-08 10:08:00,35.9,30.6,30.30,SSE,156,2.0,8.0,81,0.00,,CLR,0.00,497.00,VWS V14.00,2013-03-08 16:08:00,
2013-03-08 10:09:00,36.0,30.8,30.30,SE,133,2.0,4.0,81,0.00,,CLR,0.00,497.00,VWS V14.00,2013-03-08 16:09:00,
2013-03-08 10:10:00,36.0,31.0,30.30,SE,124,5.0,6.0,82,0.00,,CLR,0.00,323.00,VWS V14.00,2013-03-08 16:10:00,
2013-03-08 10:12:00,36.1,30.8,30.30,SSE,152,4.0,6.0,81,0.00,,CLR,0.00,452.00,VWS V14.00,2013-03-08 16:12:00,
2013-03-08 10:13:00,36.1,30.8,30.30,ESE,111,6.0,6.0,81,0.00,,CLR,0.00,452.00,VWS V14.00,2013-03-08 16:13:00,
2013-03-08 10:14:00,36.2,30.9,30.31,ESE,118,7.0,9.0,81,0.00,,CLR,0.00,452.00,VWS V14.00,2013-03-08 16:14:00,
2013-03-08 10:15:00,36.2,30.9,30.31,SE,130,7.0,9.0,81,0.00,,CLR,0.00,353.00,VWS V14.00,2013-03-08 16:15:00,
2013-03-08 10:17:00,36.2,30.9,30.31,ESE,111,6.0,9.0,81,0.00,,CLR,0.00,239.00,VWS V14.00,2013-03-08 16:17:00,
2013-03-08 10:19:00,36.3,31.3,30.31,SE,131,5.0,9.0,82,0.00,,CLR,0.00,341.00,VWS V14.00,2013-03-08 16:19:00,
2013-03-08 10:20:00,36.4,31.1,30.31,SE,140,5.0,6.0,81,0.00,,CLR,0.00,279.00,VWS V14.00,2013-03-08 16:20:00,
2013-03-08 10:22:00,36.4,31.1,30.31,ESE,123,5.0,7.0,81,0.00,,CLR,0.00,200.00,VWS V14.00,2013-03-08 16:22:00,
2013-03-08 10:24:00,36.4,31.1,30.31,SSE,148,4.0,4.0,81,0.00,,CLR,0.00,274.00,VWS V14.00,2013-03-08 16:24:00,
2013-03-08 10:25:00,36.4,31.1,30.30,SE,134,5.0,6.0,81,0.00,,CLR,0.00,258.00,VWS V14.00,2013-03-08 16:25:00,
2013-03-08 10:27:00,36.5,31.2,30.30,SE,142,4.0,6.0,81,0.00,,CLR,0.00,214.00,VWS V14.00,2013-03-08 16:27:00,
2013-03-08 10:29:00,36.6,31.6,30.30,East,97,5.0,6.0,82,0.00,,CLR,0.00,299.00,VWS V14.00,2013-03-08 16:29:00,
2013-03-08 10:30:00,36.7,31.7,30.30,East,86,5.0,7.0,82,0.00,,CLR,0.00,278.00,VWS V14.00,2013-03-08 16:30:00,
2013-03-08 10:31:00,36.8,31.8,30.31,ESE,123,7.0,7.0,82,0.00,,CLR,0.00,241.00,VWS V14.00,2013-03-08 16:31:00,
2013-03-08 10:32:00,36.9,31.6,30.30,East,101,2.0,7.0,81,0.00,,CLR,0.00,223.00,VWS V14.00,2013-03-08 16:32:00,
2013-03-08 10:34:00,36.9,31.6,30.31,SE,138,4.0,6.0,81,0.00,,CLR,0.00,221.00,VWS V14.00,2013-03-08 16:34:00,
2013-03-08 10:35:00,37.0,31.7,30.30,SE,136,5.0,6.0,81,0.00,,CLR,0.00,246.00,VWS V14.00,2013-03-08 16:35:00,
2013-03-08 10:36:00,36.9,31.6,30.30,SE,129,2.0,6.0,81,0.00,,CLR,0.00,193.00,VWS V14.00,2013-03-08 16:36:00,
2013-03-08 10:37:00,36.9,31.6,30.31,East,84,4.0,6.0,81,0.00,,CLR,0.00,195.00,VWS V14.00,2013-03-08 16:37:00,
2013-03-08 10:39:00,37.0,31.7,30.31,SE,139,4.0,4.0,81,0.00,,CLR,0.00,295.00,VWS V14.00,2013-03-08 16:39:00,
2013-03-08 10:40:00,37.0,31.7,30.31,SE,132,2.0,5.0,81,0.00,,CLR,0.00,295.00,VWS V14.00,2013-03-08 16:40:00,
2013-03-08 10:41:00,37.0,31.7,30.31,SE,125,2.0,5.0,81,0.00,,CLR,0.00,237.00,VWS V14.00,2013-03-08 16:41:00,
2013-03-08 10:43:00,37.1,32.1,30.31,East,92,4.0,6.0,82,0.00,,CLR,0.00,308.00,VWS V14.00,2013-03-08 16:43:00,
2013-03-08 10:44:00,37.2,31.9,30.31,East,88,4.0,5.0,81,0.00,,CLR,0.00,264.00,VWS V14.00,2013-03-08 16:44:00,
2013-03-08 10:45:00,37.2,31.9,30.31,East,92,5.0,5.0,81,0.00,,CLR,0.00,265.00,VWS V14.00,2013-03-08 16:45:00,
2013-03-08 10:46:00,37.2,31.9,30.31,East,94,7.0,7.0,81,0.00,,CLR,0.00,299.00,VWS V14.00,2013-03-08 16:46:00,
2013-03-08 10:48:00,37.0,31.7,30.31,ESE,104,2.0,8.0,81,0.00,,CLR,0.00,332.00,VWS V14.00,2013-03-08 16:48:00,
2013-03-08 10:49:00,37.0,32.0,30.31,East,96,7.0,7.0,82,0.00,,CLR,0.00,448.00,VWS V14.00,2013-03-08 16:49:00,
2013-03-08 10:50:00,37.0,32.0,30.31,East,85,4.0,7.0,82,0.00,,CLR,0.00,438.00,VWS V14.00,2013-03-08 16:50:00,
2013-03-08 10:51:00,37.0,32.0,30.31,East,90,5.0,7.0,82,0.00,,CLR,0.00,392.00,VWS V14.00,2013-03-08 16:51:00,
2013-03-08 10:53:00,36.9,31.9,30.30,ESE,109,5.0,7.0,82,0.00,,CLR,0.00,348.00,VWS V14.00,2013-03-08 16:53:00,
2013-03-08 10:54:00,36.9,31.9,30.30,ENE,78,3.0,8.0,82,0.00,,CLR,0.00,283.00,VWS V14.00,2013-03-08 16:54:00,
2013-03-08 10:55:00,37.0,32.0,30.30,ESE,106,5.0,8.0,82,0.00,,CLR,0.00,283.00,VWS V14.00,2013-03-08 16:55:00,
2013-03-08 10:56:00,37.0,32.3,30.30,East,92,7.0,8.0,83,0.00,,CLR,0.00,392.00,VWS V14.00,2013-03-08 16:56:00,
2013-03-08 10:58:00,36.9,31.9,30.30,ENE,78,4.0,8.0,82,0.00,,CLR,0.00,508.00,VWS V14.00,2013-03-08 16:58:00,
2013-03-08 11:00:00,36.7,32.0,30.30,ESE,105,4.0,5.0,83,0.00,,CLR,0.00,348.00,VWS V14.00,2013-03-08 17:00:00,
2013-03-08 11:01:00,36.7,32.0,30.30,East,94,8.0,10.0,83,0.00,,CLR,0.00,348.00,VWS V14.00,2013-03-08 17:01:00,
2013-03-08 11:03:00,36.6,31.9,30.30,ESE,102,8.0,11.0,83,0.00,,CLR,0.00,605.00,VWS V14.00,2013-03-08 17:03:00,
2013-03-08 11:05:00,36.4,31.7,30.30,East,90,7.0,11.0,83,0.00,,CLR,0.00,629.00,VWS V14.00,2013-03-08 17:05:00,
2013-03-08 11:06:00,36.3,31.6,30.30,East,99,2.0,11.0,83,0.00,,CLR,0.00,615.00,VWS V14.00,2013-03-08 17:06:00,
2013-03-08 11:08:00,36.3,31.9,30.30,ESE,111,5.0,11.0,84,0.00,,CLR,0.00,568.00,VWS V14.00,2013-03-08 17:08:00,
2013-03-08 11:10:00,36.3,31.9,30.30,East,95,7.0,8.0,84,0.00,,CLR,0.00,519.00,VWS V14.00,2013-03-08 17:10:00,
2013-03-08 11:11:00,36.3,31.9,30.30,East,86,5.0,8.0,84,0.00,,CLR,0.00,359.00,VWS V14.00,2013-03-08 17:11:00,
2013-03-08 11:13:00,36.3,31.9,30.30,East,95,5.0,10.0,84,0.00,,CLR,0.00,508.00,VWS V14.00,2013-03-08 17:13:00,
2013-03-08 11:15:00,36.4,32.0,30.30,ESE,103,5.0,7.0,84,0.00,,CLR,0.00,408.00,VWS V14.00,2013-03-08 17:15:00,
2013-03-08 11:16:00,36.4,32.0,30.29,ESE,111,4.0,7.0,84,0.00,,CLR,0.00,374.00,VWS V14.00,2013-03-08 17:16:00,
2013-03-08 11:19:00,36.5,33.6,30.29,ESE,123,5.0,11.0,89,0.00,,CLR,0.00,345.00,VWS V14.00,2013-03-08 17:19:00,
2013-03-08 11:20:00,36.6,32.2,30.29,ESE,110,4.0,7.0,84,0.00,,CLR,0.00,568.00,VWS V14.00,2013-03-08 17:20:00,
2013-03-08 11:21:00,36.6,32.2,30.29,ESE,112,4.0,7.0,84,0.00,,CLR,0.00,557.00,VWS V14.00,2013-03-08 17:21:00,
2013-03-08 11:24:00,36.8,32.4,30.29,ESE,103,6.0,7.0,84,0.00,,CLR,0.00,526.00,VWS V14.00,2013-03-08 17:24:00,
2013-03-08 11:25:00,36.9,32.2,30.29,ESE,111,4.0,7.0,83,0.00,,CLR,0.00,229.00,VWS V14.00,2013-03-08 17:25:00,
2013-03-08 11:26:00,36.9,32.5,30.29,ESE,112,6.0,7.0,84,0.00,,CLR,0.00,290.00,VWS V14.00,2013-03-08 17:26:00,
2013-03-08 11:27:00,37.0,32.6,30.29,East,101,5.0,7.0,84,0.00,,CLR,0.00,290.00,VWS V14.00,2013-03-08 17:27:00,
2013-03-08 11:29:00,37.1,32.7,30.29,ESE,105,2.0,4.0,84,0.00,,CLR,0.00,373.00,VWS V14.00,2013-03-08 17:29:00,
2013-03-08 11:30:00,37.3,32.9,30.29,East,98,5.0,5.0,84,0.00,,CLR,0.00,376.00,VWS V14.00,2013-03-08 17:30:00,
2013-03-08 11:31:00,37.3,32.9,30.29,East,94,4.0,5.0,84,0.00,,CLR,0.00,408.00,VWS V14.00,2013-03-08 17:31:00,
2013-03-08 11:32:00,37.5,32.8,30.29,SE,132,6.0,7.0,83,0.00,,CLR,0.00,452.00,VWS V14.00,2013-03-08 17:32:00,
2013-03-08 11:34:00,37.6,32.9,30.28,ESE,103,4.0,5.0,83,0.00,,CLR,0.00,508.00,VWS V14.00,2013-03-08 17:34:00,
2013-03-08 11:35:00,37.7,33.0,30.28,SE,128,6.0,12.0,83,0.00,,CLR,0.00,561.00,VWS V14.00,2013-03-08 17:35:00,
2013-03-08 11:36:00,37.7,33.0,30.28,ESE,107,4.0,12.0,83,0.00,,CLR,0.00,561.00,VWS V14.00,2013-03-08 17:36:00,
2013-03-08 11:37:00,37.7,32.7,30.28,East,90,8.0,12.0,82,0.00,,CLR,0.00,334.00,VWS V14.00,2013-03-08 17:37:00,
2013-03-08 11:39:00,37.7,32.7,30.28,ESE,109,9.0,10.0,82,0.00,,CLR,0.00,376.00,VWS V14.00,2013-03-08 17:39:00,
2013-03-08 11:40:00,37.7,33.0,30.28,East,87,8.0,12.0,83,0.00,,,0.00,376.00,VWS V14.00,2013-03-08 17:40:00,
2013-03-08 11:41:00,37.6,32.9,30.28,East,82,6.0,10.0,83,0.00,,CLR,0.00,483.00,VWS V14.00,2013-03-08 17:41:00,
2013-03-08 11:42:00,37.6,32.9,30.28,East,88,6.0,10.0,83,0.00,,CLR,0.00,446.00,VWS V14.00,2013-03-08 17:42:00,
2013-03-08 11:45:00,37.5,32.8,30.28,ESE,109,7.0,8.0,83,0.00,,CLR,0.00,371.00,VWS V14.00,2013-03-08 17:45:00,
2013-03-08 11:46:00,37.6,32.9,30.28,East,90,8.0,8.0,83,0.00,,CLR,0.00,360.00,VWS V14.00,2013-03-08 17:46:00,
2013-03-08 11:47:00,37.6,32.9,30.28,SE,126,5.0,8.0,83,0.00,,CLR,0.00,311.00,VWS V14.00,2013-03-08 17:47:00,
2013-03-08 11:50:00,37.8,33.1,30.28,East,84,3.0,8.0,83,0.00,,CLR,0.00,306.00,VWS V14.00,2013-03-08 17:50:00,
2013-03-08 11:51:00,37.8,33.1,30.28,ENE,78,10.0,13.0,83,0.00,,CLR,0.00,348.00,VWS V14.00,2013-03-08 17:51:00,
2013-03-08 11:52:00,37.8,33.1,30.28,ESE,102,8.0,13.0,83,0.00,,CLR,0.00,346.00,VWS V14.00,2013-03-08 17:52:00,
2013-03-08 11:55:00,37.8,32.8,30.28,East,98,4.0,10.0,82,0.00,,CLR,0.00,494.00,VWS V14.00,2013-03-08 17:55:00,
2013-03-08 11:56:00,37.8,33.1,30.28,ENE,78,6.0,11.0,83,0.00,,CLR,0.00,534.00,VWS V14.00,2013-03-08 17:56:00,
2013-03-08 11:57:00,37.9,33.2,30.28,SE,128,5.0,11.0,83,0.00,,CLR,0.00,527.00,VWS V14.00,2013-03-08 17:57:00,
2013-03-08 12:00:00,37.9,33.2,30.28,East,85,4.0,12.0,83,0.00,,CLR,0.00,499.00,VWS V14.00,2013-03-08 18:00:00,
2013-03-08 12:01:00,37.9,33.2,30.28,East,91,4.0,12.0,83,0.00,,CLR,0.00,492.00,VWS V14.00,2013-03-08 18:01:00,
2013-03-08 12:02:00,37.8,33.1,30.28,East,88,3.0,12.0,83,0.00,,CLR,0.00,543.00,VWS V14.00,2013-03-08 18:02:00,
2013-03-08 12:05:00,37.8,33.1,30.27,East,86,7.0,11.0,83,0.00,,CLR,0.00,582.00,VWS V14.00,2013-03-08 18:05:00,
2013-03-08 12:07:00,37.8,33.1,30.27,East,98,6.0,11.0,83,0.00,,CLR,0.00,631.00,VWS V14.00,2013-03-08 18:07:00,
2013-03-08 12:10:00,37.8,33.1,30.27,East,98,5.0,13.0,83,0.00,,,0.00,675.00,VWS V14.00,2013-03-08 18:10:00,
2013-03-08 12:11:00,37.7,33.0,30.27,East,100,7.0,13.0,83,0.00,,CLR,0.00,615.00,VWS V14.00,2013-03-08 18:11:00,
2013-03-08 12:12:00,37.7,33.0,30.27,ESE,116,8.0,13.0,83,0.00,,CLR,0.00,612.00,VWS V14.00,2013-03-08 18:12:00,
2013-03-08 12:15:00,37.8,33.1,30.27,ENE,64,4.0,13.0,83,0.00,,,0.00,671.00,VWS V14.00,2013-03-08 18:15:00,
2013-03-08 12:16:00,37.9,33.5,30.27,East,97,5.0,9.0,84,0.00,,CLR,0.00,675.00,VWS V14.00,2013-03-08 18:16:00,
2013-03-08 12:17:00,37.9,33.5,30.27,ENE,78,6.0,11.0,84,0.00,,CLR,0.00,696.00,VWS V14.00,2013-03-08 18:17:00,
2013-03-08 12:20:00,37.9,33.2,30.27,SE,136,7.0,14.0,83,0.00,,,0.00,673.00,VWS V14.00,2013-03-08 18:20:00,
2013-03-08 12:21:00,37.7,33.0,30.27,East,82,7.0,13.0,83,0.00,,CLR,0.00,687.00,VWS V14.00,2013-03-08 18:21:00,
2013-03-08 12:22:00,37.7,33.0,30.27,East,87,5.0,13.0,83,0.00,,CLR,0.00,693.00,VWS V14.00,2013-03-08 18:22:00,
2013-03-08 12:23:00,37.7,33.3,30.27,East,94,5.0,13.0,84,0.00,,CLR,0.00,693.00,VWS V14.00,2013-03-08 18:23:00,
2013-03-08 12:25:00,37.8,33.4,30.27,ENE,68,7.0,13.0,84,0.00,,,0.00,689.00,VWS V14.00,2013-03-08 18:25:00,
2013-03-08 12:26:00,37.9,33.2,30.27,ESE,119,5.0,10.0,83,0.00,,CLR,0.00,677.00,VWS V14.00,2013-03-08 18:26:00,
2013-03-08 12:27:00,37.9,33.5,30.27,SE,132,5.0,10.0,84,0.00,,CLR,0.00,673.00,VWS V14.00,2013-03-08 18:27:00,
2013-03-08 12:28:00,37.9,33.5,30.27,East,94,6.0,10.0,84,0.00,,CLR,0.00,673.00,VWS V14.00,2013-03-08 18:28:00,
2013-03-08 12:30:00,38.0,33.3,30.27,East,98,4.0,10.0,83,0.00,,,0.00,649.00,VWS V14.00,2013-03-08 18:30:00,
2013-03-08 12:32:00,38.0,33.3,30.27,East,90,8.0,11.0,83,0.00,,CLR,0.00,687.00,VWS V14.00,2013-03-08 18:32:00,
2013-03-08 12:33:00,38.0,33.3,30.27,ESE,118,6.0,12.0,83,0.00,,CLR,0.00,708.00,VWS V14.00,2013-03-08 18:33:00,
2013-03-08 12:35:00,38.1,33.4,30.27,East,88,5.0,12.0,83,0.00,,,0.00,714.00,VWS V14.00,2013-03-08 18:35:00,
2013-03-08 12:37:00,38.2,33.5,30.27,East,97,4.0,13.0,83,0.00,,CLR,0.00,710.00,VWS V14.00,2013-03-08 18:37:00,
2013-03-08 12:38:00,38.2,33.5,30.27,ESE,113,5.0,13.0,83,0.00,,CLR,0.00,701.00,VWS V14.00,2013-03-08 18:38:00,
2013-03-08 12:40:00,38.3,33.6,30.27,ESE,111,7.0,13.0,83,0.00,,,0.00,693.00,VWS V14.00,2013-03-08 18:40:00,
2013-03-08 12:42:00,38.5,33.8,30.27,East,90,5.0,9.0,83,0.00,,CLR,0.00,703.00,VWS V14.00,2013-03-08 18:42:00,
2013-03-08 12:43:00,38.6,33.9,30.27,ESE,118,13.0,13.0,83,0.00,,CLR,0.00,707.00,VWS V14.00,2013-03-08 18:43:00,
2013-03-08 12:45:00,38.6,33.6,30.27,ESE,110,6.0,13.0,82,0.00,,,0.00,698.00,VWS V14.00,2013-03-08 18:45:00,
2013-03-08 12:47:00,38.8,34.1,30.26,SSE,148,5.0,8.0,83,0.00,,CLR,0.00,684.00,VWS V14.00,2013-03-08 18:47:00,
2013-03-08 12:48:00,38.8,33.8,30.26,ESE,120,4.0,8.0,82,0.00,,CLR,0.00,689.00,VWS V14.00,2013-03-08 18:48:00,
2013-03-08 12:49:00,38.9,33.9,30.26,ESE,114,4.0,8.0,82,0.00,,CLR,0.00,686.00,VWS V14.00,2013-03-08 18:49:00,
2013-03-08 12:50:00,38.9,33.9,30.26,ESE,115,5.0,8.0,82,0.00,,,0.00,686.00,VWS V14.00,2013-03-08 18:50:00,
2013-03-08 12:52:00,39.2,34.2,30.26,East,82,4.0,12.0,82,0.00,,CLR,0.00,701.00,VWS V14.00,2013-03-08 18:52:00,
2013-03-08 12:53:00,39.3,34.3,30.26,SE,129,5.0,12.0,82,0.00,,CLR,0.00,689.00,VWS V14.00,2013-03-08 18:53:00,
2013-03-08 12:54:00,39.4,34.1,30.26,ESE,109,5.0,5.0,81,0.00,,CLR,0.00,691.00,VWS V14.00,2013-03-08 18:54:00,
2013-03-08 12:55:00,39.3,34.0,30.26,ENE,72,5.0,12.0,81,0.00,,,0.00,691.00,VWS V14.00,2013-03-08 18:55:00,
2013-03-08 12:57:00,39.5,34.5,30.26,ESE,108,6.0,9.0,82,0.00,,CLR,0.00,708.00,VWS V14.00,2013-03-08 18:57:00,
2013-03-08 12:58:00,39.6,34.6,30.26,SE,129,4.0,9.0,82,0.00,,CLR,0.00,708.00,VWS V14.00,2013-03-08 18:58:00,
2013-03-08 12:59:00,39.7,34.4,30.26,ESE,109,2.0,5.0,81,0.00,,CLR,0.00,696.00,VWS V14.00,2013-03-08 18:59:00,
2013-03-08 13:00:00,39.7,34.4,30.26,East,96,6.0,9.0,81,0.00,,,0.00,700.00,VWS V14.00,2013-03-08 19:00:00,
2013-03-08 13:02:00,40.0,34.7,30.25,ESE,122,6.0,11.0,81,0.00,,CLR,0.00,638.00,VWS V14.00,2013-03-08 19:02:00,
2013-03-08 13:03:00,40.0,34.3,30.25,SE,134,6.0,11.0,80,0.00,,CLR,0.00,638.00,VWS V14.00,2013-03-08 19:03:00,
2013-03-08 13:04:00,39.9,34.2,30.25,SE,133,7.0,8.0,80,0.00,,CLR,0.00,610.00,VWS V14.00,2013-03-08 19:04:00,
2013-03-08 13:05:00,40.0,34.3,30.25,SE,134,5.0,11.0,80,0.00,,,0.00,631.00,VWS V14.00,2013-03-08 19:05:00,
2013-03-08 13:08:00,39.9,34.2,30.25,ENE,62,3.0,9.0,80,0.00,,CLR,0.00,571.00,VWS V14.00,2013-03-08 19:08:00,
2013-03-08 13:09:00,39.9,34.2,30.25,ESE,110,5.0,9.0,80,0.00,,CLR,0.00,589.00,VWS V14.00,2013-03-08 19:09:00,
2013-03-08 13:10:00,39.9,34.2,30.25,ESE,112,4.0,9.0,80,0.00,,,0.00,589.00,VWS V14.00,2013-03-08 19:10:00,
2013-03-08 13:13:00,39.9,34.2,30.25,SE,130,9.0,9.0,80,0.00,,CLR,0.00,313.00,VWS V14.00,2013-03-08 19:13:00,
2013-03-08 13:14:00,39.8,34.1,30.25,SE,132,11.0,12.0,80,0.00,,CLR,0.00,264.00,VWS V14.00,2013-03-08 19:14:00,
2013-03-08 13:15:00,39.7,33.7,30.25,East,101,5.0,11.0,79,0.00,,CLR,0.00,267.00,VWS V14.00,2013-03-08 19:15:00,
2013-03-08 13:18:00,39.2,33.9,30.25,ENE,77,4.0,13.0,81,0.00,,CLR,0.00,364.00,VWS V14.00,2013-03-08 19:18:00,
2013-03-08 13:19:00,39.2,33.9,30.24,SSE,149,5.0,6.0,81,0.00,,CLR,0.00,381.00,VWS V14.00,2013-03-08 19:19:00,
2013-03-08 13:20:00,39.1,33.8,30.24,SSE,159,10.0,10.0,81,0.00,,CLR,0.00,383.00,VWS V14.00,2013-03-08 19:20:00,
2013-03-08 13:23:00,38.9,33.6,30.24,SE,124,5.0,13.0,81,0.00,,CLR,0.00,390.00,VWS V14.00,2013-03-08 19:23:00,
2013-03-08 13:24:00,38.9,33.9,30.24,ESE,105,7.0,7.0,82,0.00,,CLR,0.00,390.00,VWS V14.00,2013-03-08 19:24:00,
2013-03-08 13:25:00,39.0,34.0,30.24,East,94,8.0,8.0,82,0.00,,CLR,0.00,526.00,VWS V14.00,2013-03-08 19:25:00,
2013-03-08 13:28:00,39.2,34.2,30.24,ESE,112,6.0,11.0,82,0.00,,CLR,0.00,703.00,VWS V14.00,2013-03-08 19:28:00,
2013-03-08 13:29:00,39.2,34.2,30.24,ESE,123,5.0,11.0,82,0.00,,CLR,0.00,703.00,VWS V14.00,2013-03-08 19:29:00,
2013-03-08 13:30:00,39.3,34.3,30.24,East,95,9.0,11.0,82,0.00,,CLR,0.00,591.00,VWS V14.00,2013-03-08 19:30:00,
2013-03-08 13:33:00,39.3,34.0,30.24,SE,128,9.0,14.0,81,0.00,,CLR,0.00,494.00,VWS V14.00,2013-03-08 19:33:00,
2013-03-08 13:34:00,39.3,34.0,30.24,ESE,123,7.0,8.0,81,0.00,,CLR,0.00,494.00,VWS V14.00,2013-03-08 19:34:00,
2013-03-08 13:35:00,39.3,34.0,30.24,ESE,115,5.0,9.0,81,0.00,,CLR,0.00,415.00,VWS V14.00,2013-03-08 19:35:00,
2013-03-08 13:38:00,39.5,34.2,30.24,East,82,1.0,11.0,81,0.00,,CLR,0.00,492.00,VWS V14.00,2013-03-08 19:38:00,
2013-03-08 13:39:00,39.5,34.5,30.24,East,89,4.0,5.0,82,0.00,,CLR,0.00,504.00,VWS V14.00,2013-03-08 19:39:00,
2013-03-08 13:40:00,39.6,34.6,30.24,SE,130,7.0,9.0,82,0.00,,CLR,0.00,450.00,VWS V14.00,2013-03-08 19:40:00,
2013-03-08 13:43:00,39.7,34.4,30.24,SE,133,2.0,9.0,81,0.00,,CLR,0.00,522.00,VWS V14.00,2013-03-08 19:43:00,
2013-03-08 13:44:00,39.8,34.5,30.24,ESE,116,11.0,11.0,81,0.00,,CLR,0.00,506.00,VWS V14.00,2013-03-08 19:44:00,
2013-03-08 13:45:00,39.8,34.5,30.24,ENE,65,6.0,11.0,81,0.00,,CLR,0.00,526.00,VWS V14.00,2013-03-08 19:45:00,
2013-03-08 13:48:00,39.7,34.4,30.24,SE,130,4.0,12.0,81,0.00,,CLR,0.00,369.00,VWS V14.00,2013-03-08 19:48:00,
2013-03-08 13:49:00,39.7,34.4,30.24,ESE,106,4.0,5.0,81,0.00,,CLR,0.00,366.00,VWS V14.00,2013-03-08 19:49:00,
2013-03-08 13:50:00,39.7,34.4,30.24,ESE,107,4.0,5.0,81,0.00,,CLR,0.00,366.00,VWS V14.00,2013-03-08 19:50:00,
2013-03-08 13:54:00,39.7,34.7,30.24,East,83,6.0,11.0,82,0.00,,CLR,0.00,512.00,VWS V14.00,2013-03-08 19:54:00,
2013-03-08 13:55:00,39.7,34.4,30.24,ESE,122,6.0,7.0,81,0.00,,CLR,0.00,543.00,VWS V14.00,2013-03-08 19:55:00,
2013-03-08 13:59:00,39.7,34.4,30.24,ESE,117,8.0,13.0,81,0.00,,CLR,0.00,540.00,VWS V14.00,2013-03-08 19:59:00,
2013-03-08 14:00:00,39.7,34.4,30.24,SE,137,7.0,7.0,81,0.00,,CLR,0.00,550.00,VWS V14.00,2013-03-08 20:00:00,
2013-03-08 14:04:00,39.8,34.8,30.24,SE,130,7.0,7.0,82,0.00,,CLR,0.00,596.00,VWS V14.00,2013-03-08 20:04:00,
2013-03-08 14:05:00,39.9,34.5,30.24,ESE,123,5.0,9.0,81,0.00,,CLR,0.00,519.00,VWS V14.00,2013-03-08 20:05:00,
2013-03-08 14:09:00,39.9,34.5,30.24,East,96,9.0,9.0,81,0.00,,CLR,0.00,404.00,VWS V14.00,2013-03-08 20:09:00,
2013-03-08 14:10:00,39.9,34.5,30.24,East,93,4.0,12.0,81,0.00,,CLR,0.00,388.00,VWS V14.00,2013-03-08 20:10:00,
2013-03-08 14:11:00,39.8,34.5,30.24,East,92,6.0,12.0,81,0.00,,CLR,0.00,371.00,VWS V14.00,2013-03-08 20:11:00,
2013-03-08 14:14:00,39.9,34.9,30.24,ESE,120,2.0,6.0,82,0.00,,CLR,0.00,348.00,VWS V14.00,2013-03-08 20:14:00,
2013-03-08 14:15:00,39.9,34.9,30.23,ESE,119,6.0,9.0,82,0.00,,CLR,0.00,353.00,VWS V14.00,2013-03-08 20:15:00,
2013-03-08 14:16:00,39.9,34.9,30.23,ESE,119,5.0,9.0,82,0.00,,CLR,0.00,353.00,VWS V14.00,2013-03-08 20:16:00,
2013-03-08 14:19:00,39.9,34.9,30.24,ESE,105,4.0,6.0,82,0.00,,CLR,0.00,366.00,VWS V14.00,2013-03-08 20:19:00,
2013-03-08 14:20:00,39.9,34.9,30.24,SE,140,4.0,6.0,82,0.00,,CLR,0.00,425.00,VWS V14.00,2013-03-08 20:20:00,
2013-03-08 14:21:00,39.9,34.9,30.24,SE,130,5.0,6.0,82,0.00,,CLR,0.00,425.00,VWS V14.00,2013-03-08 20:21:00,
2013-03-08 14:24:00,40.0,34.7,30.24,SE,143,11.0,11.0,81,0.00,,CLR,0.00,401.00,VWS V14.00,2013-03-08 20:24:00,
2013-03-08 14:25:00,40.0,34.7,30.24,SE,139,5.0,14.0,81,0.00,,,0.00,439.00,VWS V14.00,2013-03-08 20:25:00,
2013-03-08 14:26:00,40.0,34.7,30.24,ESE,121,8.0,11.0,81,0.00,,CLR,0.00,438.00,VWS V14.00,2013-03-08 20:26:00,
2013-03-08 14:29:00,39.9,34.5,30.24,SE,133,6.0,9.0,81,0.00,,CLR,0.00,206.00,VWS V14.00,2013-03-08 20:29:00,
2013-03-08 14:30:00,39.9,34.5,30.24,ESE,123,9.0,13.0,81,0.00,,,0.00,250.00,VWS V14.00,2013-03-08 20:30:00,
2013-03-08 14:31:00,39.8,34.5,30.23,ESE,119,6.0,9.0,81,0.00,,CLR,0.00,199.00,VWS V14.00,2013-03-08 20:31:00,
2013-03-08 14:34:00,39.6,34.6,30.24,ESE,123,8.0,8.0,82,0.00,,CLR,0.00,374.00,VWS V14.00,2013-03-08 20:34:00,
2013-03-08 14:35:00,39.7,34.4,30.23,SE,130,6.0,11.0,81,0.00,,,0.00,374.00,VWS V14.00,2013-03-08 20:35:00,
2013-03-08 14:36:00,39.6,34.6,30.23,ESE,118,5.0,11.0,82,0.00,,CLR,0.00,388.00,VWS V14.00,2013-03-08 20:36:00,
2013-03-08 14:39:00,39.7,34.7,30.23,SE,134,6.0,9.0,82,0.00,,CLR,0.00,320.00,VWS V14.00,2013-03-08 20:39:00,
2013-03-08 14:40:00,39.6,34.6,30.23,ESE,109,9.0,13.0,82,0.00,,,0.00,320.00,VWS V14.00,2013-03-08 20:40:00,
2013-03-08 14:41:00,39.7,34.7,30.23,SE,132,7.0,9.0,82,0.00,,CLR,0.00,315.00,VWS V14.00,2013-03-08 20:41:00,
2013-03-08 14:44:00,39.7,34.7,30.23,ESE,117,8.0,10.0,82,0.00,,CLR,0.00,401.00,VWS V14.00,2013-03-08 20:44:00,
2013-03-08 14:45:00,39.7,34.7,30.23,SE,142,10.0,12.0,82,0.00,,,0.00,380.00,VWS V14.00,2013-03-08 20:45:00,
2013-03-08 14:46:00,39.7,34.7,30.23,SE,135,6.0,10.0,82,0.00,,CLR,0.00,323.00,VWS V14.00,2013-03-08 20:46:00,
2013-03-08 14:50:00,39.8,34.8,30.23,ESE,113,5.0,9.0,82,0.00,,CLR,0.00,304.00,VWS V14.00,2013-03-08 20:50:00,
2013-03-08 14:51:00,39.8,34.8,30.23,SE,132,7.0,10.0,82,0.00,,CLR,0.00,301.00,VWS V14.00,2013-03-08 20:51:00,
2013-03-08 14:52:00,39.7,34.7,30.23,SE,137,5.0,11.0,82,0.00,,CLR,0.00,311.00,VWS V14.00,2013-03-08 20:52:00,
2013-03-08 14:55:00,39.8,34.8,30.23,SE,133,8.0,11.0,82,0.00,,CLR,0.00,403.00,VWS V14.00,2013-03-08 20:55:00,
2013-03-08 14:56:00,39.8,34.8,30.23,SE,128,6.0,11.0,82,0.00,,CLR,0.00,373.00,VWS V14.00,2013-03-08 20:56:00,
2013-03-08 14:57:00,39.8,34.8,30.23,SE,135,9.0,11.0,82,0.00,,CLR,0.00,350.00,VWS V14.00,2013-03-08 20:57:00,
2013-03-08 15:00:00,39.8,34.8,30.23,SE,131,5.0,6.0,82,0.00,,CLR,0.00,290.00,VWS V14.00,2013-03-08 21:00:00,
2013-03-08 15:01:00,39.9,34.9,30.23,SE,127,7.0,9.0,82,0.00,,CLR,0.00,267.00,VWS V14.00,2013-03-08 21:01:00,
2013-03-08 15:02:00,39.9,34.9,30.23,SE,126,4.0,9.0,82,0.00,,CLR,0.00,267.00,VWS V14.00,2013-03-08 21:02:00,
2013-03-08 15:05:00,39.9,34.9,30.23,ESE,107,7.0,7.0,82,0.00,,CLR,0.00,241.00,VWS V14.00,2013-03-08 21:05:00,
2013-03-08 15:07:00,39.9,34.9,30.23,East,101,4.0,7.0,82,0.00,,CLR,0.00,237.00,VWS V14.00,2013-03-08 21:07:00,
2013-03-08 15:10:00,39.9,34.9,30.23,SSE,161,4.0,9.0,82,0.00,,,0.00,232.00,VWS V14.00,2013-03-08 21:10:00,
2013-03-08 15:11:00,39.9,34.9,30.23,SE,125,2.0,8.0,82,0.00,,CLR,0.00,225.00,VWS V14.00,2013-03-08 21:11:00,
2013-03-08 15:12:00,40.0,35.0,30.23,SE,139,4.0,8.0,82,0.00,,CLR,0.00,220.00,VWS V14.00,2013-03-08 21:12:00,
2013-03-08 15:13:00,40.0,35.0,30.23,East,87,6.0,8.0,82,0.00,,CLR,0.00,216.00,VWS V14.00,2013-03-08 21:13:00,
2013-03-08 15:15:00,40.0,35.0,30.23,ESE,118,5.0,11.0,82,0.00,,,0.00,211.00,VWS V14.00,2013-03-08 21:15:00,
2013-03-08 15:16:00,40.0,35.0,30.23,SE,143,5.0,7.0,82,0.00,,CLR,0.00,197.00,VWS V14.00,2013-03-08 21:16:00,
2013-03-08 15:17:00,40.0,35.0,30.23,SE,139,2.0,7.0,82,0.00,,CLR,0.00,190.00,VWS V14.00,2013-03-08 21:17:00,
2013-03-08 15:18:00,40.0,35.0,30.23,SSE,154,4.0,7.0,82,0.00,,CLR,0.00,190.00,VWS V14.00,2013-03-08 21:18:00,
2013-03-08 15:20:00,40.0,35.0,30.23,SE,134,2.0,7.0,82,0.00,,,0.00,188.00,VWS V14.00,2013-03-08 21:20:00,
2013-03-08 15:21:00,40.0,35.0,30.22,East,84,3.0,7.0,82,0.00,,CLR,0.00,188.00,VWS V14.00,2013-03-08 21:21:00,
2013-03-08 15:23:00,40.0,35.0,30.22,ESE,123,6.0,7.0,82,0.00,,CLR,0.00,190.00,VWS V14.00,2013-03-08 21:23:00,
2013-03-08 15:25:00,39.9,34.9,30.22,ESE,109,5.0,9.0,82,0.00,,,0.00,192.00,VWS V14.00,2013-03-08 21:25:00,
2013-03-08 15:27:00,39.9,34.9,30.22,SE,142,5.0,9.0,82,0.00,,CLR,0.00,199.00,VWS V14.00,2013-03-08 21:27:00,
2013-03-08 15:28:00,39.9,34.9,30.22,East,86,7.0,9.0,82,0.00,,CLR,0.00,199.00,VWS V14.00,2013-03-08 21:28:00,
2013-03-08 15:30:00,39.9,34.9,30.22,East,98,5.0,9.0,82,0.00,,,0.00,199.00,VWS V14.00,2013-03-08 21:30:00,
2013-03-08 15:32:00,39.8,34.8,30.22,SE,126,6.0,7.0,82,0.00,,CLR,0.00,185.00,VWS V14.00,2013-03-08 21:32:00,
2013-03-08 15:33:00,39.8,34.8,30.22,ESE,121,4.0,7.0,82,0.00,,CLR,0.00,179.00,VWS V14.00,2013-03-08 21:33:00,
2013-03-08 15:35:00,39.8,34.8,30.22,ESE,105,4.0,7.0,82,0.00,,,0.00,174.00,VWS V14.00,2013-03-08 21:35:00,
2013-03-08 15:37:00,39.8,34.8,30.21,East,86,2.0,7.0,82,0.00,,CLR,0.00,153.00,VWS V14.00,2013-03-08 21:37:00,
2013-03-08 15:38:00,39.7,34.7,30.21,ESE,108,2.0,7.0,82,0.00,,CLR,0.00,148.00,VWS V14.00,2013-03-08 21:38:00,
2013-03-08 15:40:00,39.7,34.7,30.21,East,90,6.0,7.0,82,0.00,,,0.00,142.00,VWS V14.00,2013-03-08 21:40:00,
2013-03-08 15:42:00,39.7,34.7,30.21,ESE,105,8.0,8.0,82,0.00,,CLR,0.00,137.00,VWS V14.00,2013-03-08 21:42:00,
2013-03-08 15:43:00,39.7,35.0,30.21,SE,125,5.0,8.0,83,0.00,,CLR,0.00,137.00,VWS V14.00,2013-03-08 21:43:00,
2013-03-08 15:44:00,39.7,34.7,30.21,ESE,123,4.0,4.0,82,0.00,,CLR,0.00,139.00,VWS V14.00,2013-03-08 21:44:00,
2013-03-08 15:45:00,39.7,34.7,30.21,ESE,122,2.0,8.0,82,0.00,,,0.00,139.00,VWS V14.00,2013-03-08 21:45:00,
2013-03-08 15:48:00,39.6,34.9,30.20,ESE,108,4.0,8.0,83,0.00,,CLR,0.00,142.00,VWS V14.00,2013-03-08 21:48:00,
2013-03-08 15:49:00,39.5,34.8,30.21,SE,127,6.0,8.0,83,0.00,,CLR,0.00,141.00,VWS V14.00,2013-03-08 21:49:00,
2013-03-08 15:50:00,39.6,34.9,30.20,SE,126,5.0,8.0,83,0.00,,,0.00,141.00,VWS V14.00,2013-03-08 21:50:00,
2013-03-08 15:53:00,39.4,34.7,30.20,SE,136,5.0,9.0,83,0.00,,CLR,0.00,134.00,VWS V14.00,2013-03-08 21:53:00,
2013-03-08 15:54:00,39.4,34.7,30.20,SE,129,4.0,9.0,83,0.00,,CLR,0.00,134.00,VWS V14.00,2013-03-08 21:54:00,
2013-03-08 15:55:00,39.4,34.7,30.20,ESE,107,6.0,7.0,83,0.00,,CLR,0.00,135.00,VWS V14.00,2013-03-08 21:55:00,
2013-03-08 15:58:00,39.3,34.6,30.20,ESE,120,5.0,9.0,83,0.00,,CLR,0.00,132.00,VWS V14.00,2013-03-08 21:58:00,
2013-03-08 15:59:00,39.3,34.6,30.20,SE,137,6.0,9.0,83,0.00,,CLR,0.00,130.00,VWS V14.00,2013-03-08 21:59:00,
2013-03-08 16:00:00,39.3,34.6,30.20,ESE,111,6.0,7.0,83,0.00,,CLR,0.00,128.00,VWS V14.00,2013-03-08 22:00:00,
2013-03-08 16:03:00,39.4,34.4,30.20,SE,125,2.0,8.0,82,0.00,,CLR,0.00,132.00,VWS V14.00,2013-03-08 22:03:00,
2013-03-08 16:04:00,39.4,34.4,30.20,East,99,5.0,8.0,82,0.00,,CLR,0.00,132.00,VWS V14.00,2013-03-08 22:04:00,
2013-03-08 16:05:00,39.4,34.4,30.20,ESE,108,4.0,6.0,82,0.00,,CLR,0.00,130.00,VWS V14.00,2013-03-08 22:05:00,
2013-03-08 16:08:00,39.3,34.6,30.20,ESE,123,5.0,6.0,83,0.00,,CLR,0.00,125.00,VWS V14.00,2013-03-08 22:08:00,
2013-03-08 16:09:00,39.3,34.6,30.20,ESE,123,2.0,6.0,83,0.00,,CLR,0.00,123.00,VWS V14.00,2013-03-08 22:09:00,
2013-03-08 16:10:00,39.2,34.5,30.19,East,100,2.0,5.0,83,0.00,,CLR,0.00,123.00,VWS V14.00,2013-03-08 22:10:00,
2013-03-08 16:13:00,39.1,34.4,30.19,ESE,114,4.0,6.0,83,0.00,,CLR,0.00,120.00,VWS V14.00,2013-03-08 22:13:00,
2013-03-08 16:14:00,39.1,34.4,30.19,ESE,118,7.0,7.0,83,0.00,,CLR,0.00,118.00,VWS V14.00,2013-03-08 22:14:00,
2013-03-08 16:15:00,39.1,34.4,30.19,SE,143,4.0,7.0,83,0.00,,CLR,0.00,114.00,VWS V14.00,2013-03-08 22:15:00,
2013-03-08 16:19:00,39.0,34.6,30.19,ESE,117,7.0,8.0,84,0.00,,CLR,0.00,107.00,VWS V14.00,2013-03-08 22:19:00,
2013-03-08 16:20:00,39.1,34.4,30.19,ESE,115,8.0,8.0,83,0.00,,CLR,0.00,98.00,VWS V14.00,2013-03-08 22:20:00,
2013-03-08 16:24:00,39.5,34.5,30.19,SE,125,4.0,4.0,82,0.00,,CLR,0.00,90.00,VWS V14.00,2013-03-08 22:24:00,
2013-03-08 16:25:00,39.5,34.5,30.19,SE,125,4.0,9.0,82,0.00,,,0.00,91.00,VWS V14.00,2013-03-08 22:25:00,
2013-03-08 16:26:00,39.6,34.6,30.19,SE,136,7.0,8.0,82,0.00,,CLR,0.00,86.00,VWS V14.00,2013-03-08 22:26:00,
2013-03-08 16:29:00,39.9,34.5,30.19,SE,140,7.0,7.0,81,0.00,,CLR,0.00,84.00,VWS V14.00,2013-03-08 22:29:00,
2013-03-08 16:30:00,39.9,34.5,30.19,ESE,123,8.0,8.0,81,0.00,,CLR,0.00,84.00,VWS V14.00,2013-03-08 22:30:00,
2013-03-08 16:31:00,40.0,34.7,30.18,SE,140,7.0,9.0,81,0.00,,CLR,0.00,83.00,VWS V14.00,2013-03-08 22:31:00,
2013-03-08 16:34:00,40.2,34.2,30.18,SE,138,6.0,7.0,79,0.00,,CLR,0.00,81.00,VWS V14.00,2013-03-08 22:34:00,
2013-03-08 16:35:00,40.2,34.2,30.18,ESE,105,6.0,7.0,79,0.00,,CLR,0.00,81.00,VWS V14.00,2013-03-08 22:35:00,
2013-03-08 16:36:00,40.3,34.3,30.18,ESE,109,8.0,9.0,79,0.00,,CLR,0.00,81.00,VWS V14.00,2013-03-08 22:36:00,
2013-03-08 16:40:00,40.4,34.1,30.18,SE,132,7.0,7.0,78,0.00,,CLR,0.00,77.00,VWS V14.00,2013-03-08 22:40:00,
2013-03-08 16:41:00,40.4,34.1,30.18,ESE,116,6.0,7.0,78,0.00,,CLR,0.00,74.00,VWS V14.00,2013-03-08 22:41:00,
2013-03-08 16:45:00,40.3,33.7,30.18,ESE,121,8.0,12.0,77,0.00,,CLR,0.00,72.00,VWS V14.00,2013-03-08 22:45:00,
2013-03-08 16:46:00,40.3,33.3,30.18,SE,134,7.0,13.0,76,0.00,,CLR,0.00,70.00,VWS V14.00,2013-03-08 22:46:00,
2013-03-08 16:50:00,40.1,33.2,30.18,SE,134,7.0,8.0,76,0.00,,CLR,0.00,69.00,VWS V14.00,2013-03-08 22:50:00,
2013-03-08 16:51:00,40.1,33.2,30.18,SE,136,10.0,12.0,76,0.00,,CLR,0.00,67.00,VWS V14.00,2013-03-08 22:51:00,
2013-03-08 16:55:00,40.0,33.1,30.18,ESE,122,8.0,8.0,76,0.00,,CLR,0.00,62.00,VWS V14.00,2013-03-08 22:55:00,
2013-03-08 16:56:00,39.9,33.0,30.18,SE,127,6.0,13.0,76,0.00,,CLR,0.00,58.00,VWS V14.00,2013-03-08 22:56:00,
2013-03-08 17:00:00,39.8,33.2,30.18,ESE,118,7.0,13.0,77,0.00,,CLR,0.00,54.00,VWS V14.00,2013-03-08 23:00:00,
2013-03-08 17:01:00,39.7,33.1,30.17,SE,131,11.0,13.0,77,0.00,,CLR,0.00,53.00,VWS V14.00,2013-03-08 23:01:00,
2013-03-08 17:05:00,39.6,33.3,30.17,ESE,107,9.0,13.0,78,0.00,,CLR,0.00,47.00,VWS V14.00,2013-03-08 23:05:00,
2013-03-08 17:07:00,39.5,33.2,30.17,SE,134,6.0,13.0,78,0.00,,CLR,0.00,44.00,VWS V14.00,2013-03-08 23:07:00,
2013-03-08 17:10:00,39.3,33.0,30.17,ESE,105,11.0,17.0,78,0.00,,CLR,0.00,42.00,VWS V14.00,2013-03-08 23:10:00,
2013-03-08 17:11:00,39.3,33.3,30.17,SE,133,11.0,17.0,79,0.00,,CLR,0.00,40.00,VWS V14.00,2013-03-08 23:11:00,
2013-03-08 17:12:00,39.2,33.2,30.17,East,98,7.0,17.0,79,0.00,,CLR,0.00,40.00,VWS V14.00,2013-03-08 23:12:00,
2013-03-08 17:15:00,39.0,33.0,30.16,ESE,112,11.0,11.0,79,0.00,,CLR,0.00,39.00,VWS V14.00,2013-03-08 23:15:00,
2013-03-08 17:16:00,38.9,33.3,30.16,ESE,117,13.0,14.0,80,0.00,,CLR,0.00,39.00,VWS V14.00,2013-03-08 23:16:00,
2013-03-08 17:17:00,38.9,33.0,30.16,SE,133,8.0,14.0,79,0.00,,CLR,0.00,37.00,VWS V14.00,2013-03-08 23:17:00,
2013-03-08 17:20:00,38.8,33.2,30.16,SE,135,13.0,15.0,80,0.00,,CLR,0.00,35.00,VWS V14.00,2013-03-08 23:20:00,
2013-03-08 17:21:00,38.7,33.1,30.16,SE,142,8.0,15.0,80,0.00,,CLR,0.00,33.00,VWS V14.00,2013-03-08 23:21:00,
2013-03-08 17:22:00,38.7,33.1,30.16,SE,134,8.0,15.0,80,0.00,,CLR,0.00,32.00,VWS V14.00,2013-03-08 23:22:00,
2013-03-08 17:25:00,38.6,33.0,30.16,SE,124,6.0,9.0,80,0.00,,CLR,0.00,30.00,VWS V14.00,2013-03-08 23:25:00,
2013-03-08 17:26:00,38.6,33.0,30.16,ESE,114,5.0,11.0,80,0.00,,CLR,0.00,30.00,VWS V14.00,2013-03-08 23:26:00,
2013-03-08 17:27:00,38.5,32.9,30.16,ESE,120,13.0,13.0,80,0.00,,CLR,0.00,30.00,VWS V14.00,2013-03-08 23:27:00,
2013-03-08 17:30:00,38.5,32.9,30.16,ESE,103,7.0,14.0,80,0.00,,CLR,0.00,28.00,VWS V14.00,2013-03-08 23:30:00,
2013-03-08 17:31:00,38.5,32.9,30.16,ESE,106,8.0,14.0,80,0.00,,CLR,0.00,28.00,VWS V14.00,2013-03-08 23:31:00,
2013-03-08 17:32:00,38.4,32.8,30.16,SSE,151,5.0,14.0,80,0.00,,CLR,0.00,28.00,VWS V14.00,2013-03-08 23:32:00,
2013-03-08 17:35:00,38.3,32.7,30.16,SE,124,7.0,12.0,80,0.00,,CLR,0.00,26.00,VWS V14.00,2013-03-08 23:35:00,
2013-03-08 17:36:00,38.3,32.7,30.16,SE,126,14.0,14.0,80,0.00,,CLR,0.00,25.00,VWS V14.00,2013-03-08 23:36:00,
2013-03-08 17:37:00,38.3,32.4,30.16,ESE,123,5.0,14.0,79,0.00,,CLR,0.00,25.00,VWS V14.00,2013-03-08 23:37:00,
2013-03-08 17:40:00,38.2,32.3,30.16,SE,130,7.0,14.0,79,0.00,,,0.00,23.00,VWS V14.00,2013-03-08 23:40:00,
2013-03-08 17:41:00,38.3,32.4,30.16,ESE,114,5.0,11.0,79,0.00,,CLR,0.00,21.00,VWS V14.00,2013-03-08 23:41:00,
2013-03-08 17:42:00,38.3,32.4,30.16,East,96,9.0,12.0,79,0.00,,CLR,0.00,21.00,VWS V14.00,2013-03-08 23:42:00,
2013-03-08 17:43:00,38.3,32.4,30.16,ESE,117,6.0,12.0,79,0.00,,CLR,0.00,21.00,VWS V14.00,2013-03-08 23:43:00,
2013-03-08 17:45:00,38.3,32.4,30.16,ESE,112,7.0,12.0,79,0.00,,,0.00,21.00,VWS V14.00,2013-03-08 23:45:00,
2013-03-08 17:46:00,38.3,32.4,30.16,ESE,121,7.0,11.0,79,0.00,,CLR,0.00,18.00,VWS V14.00,2013-03-08 23:46:00,
2013-03-08 17:47:00,38.3,32.7,30.16,SE,124,9.0,12.0,80,0.00,,CLR,0.00,18.00,VWS V14.00,2013-03-08 23:47:00,
2013-03-08 17:48:00,38.3,32.7,30.16,SE,124,8.0,12.0,80,0.00,,CLR,0.00,18.00,VWS V14.00,2013-03-08 23:48:00,
2013-03-08 17:50:00,38.2,32.6,30.16,ESE,119,11.0,12.0,80,0.00,,,0.00,16.00,VWS V14.00,2013-03-08 23:50:00,
2013-03-08 17:51:00,38.2,32.9,30.16,SE,131,5.0,13.0,81,0.00,,CLR,0.00,16.00,VWS V14.00,2013-03-08 23:51:00,
2013-03-08 17:52:00,38.1,32.8,30.15,East,93,7.0,13.0,81,0.00,,CLR,0.00,14.00,VWS V14.00,2013-03-08 23:52:00,
2013-03-08 17:53:00,38.1,32.8,30.16,SE,124,9.0,13.0,81,0.00,,CLR,0.00,14.00,VWS V14.00,2013-03-08 23:53:00,
2013-03-08 17:55:00,38.1,32.8,30.16,SE,128,7.0,13.0,81,0.00,,,0.00,14.00,VWS V14.00,2013-03-08 23:55:00,
2013-03-08 17:57:00,38.1,32.8,30.15,SE,128,11.0,18.0,81,0.00,,CLR,0.00,12.00,VWS V14.00,2013-03-08 23:57:00,
2013-03-08 17:59:00,38.0,32.7,30.16,SE,140,6.0,18.0,81,0.00,,CLR,0.00,9.00,VWS V14.00,2013-03-08 23:59:00,
2013-03-08 18:00:00,38.0,32.7,30.15,ESE,108,7.0,18.0,81,0.00,,,0.00,9.00,VWS V14.00,2013-03-09 00:00:00,
2013-03-08 18:02:00,37.9,32.9,30.16,SE,135,8.0,9.0,82,0.00,,CLR,0.00,7.00,VWS V14.00,2013-03-09 00:02:00,
2013-03-08 18:04:00,37.9,32.9,30.16,SE,146,10.0,11.0,82,0.00,,CLR,0.00,7.00,VWS V14.00,2013-03-09 00:04:00,
2013-03-08 18:05:00,37.9,32.9,30.16,SE,143,9.0,11.0,82,0.00,,,0.00,7.00,VWS V14.00,2013-03-09 00:05:00,
2013-03-08 18:07:00,37.8,32.8,30.16,SE,126,7.0,11.0,82,0.00,,CLR,0.00,0.00,VWS V14.00,2013-03-09 00:07:00,
2013-03-08 18:09:00,37.8,32.8,30.16,ESE,123,4.0,7.0,82,0.00,,CLR,0.00,0.00,VWS V14.00,2013-03-09 00:09:00,
2013-03-08 18:10:00,37.8,32.8,30.16,SE,126,7.0,11.0,82,0.00,,,0.00,0.00,VWS V14.00,2013-03-09 00:10:00,
2013-03-08 18:12:00,37.8,32.8,30.16,SE,142,9.0,11.0,82,0.00,,CLR,0.00,0.00,VWS V14.00,2013-03-09 00:12:00,
2013-03-08 18:14:00,37.9,32.9,30.16,SE,140,8.0,10.0,82,0.00,,CLR,0.00,0.00,VWS V14.00,2013-03-09 00:14:00,
2013-03-08 18:15:00,37.8,32.8,30.16,SE,131,8.0,12.0,82,0.00,,,0.00,0.00,VWS V14.00,2013-03-09 00:15:00,
2013-03-08 18:17:00,37.8,32.8,30.16,SE,140,9.0,14.0,82,0.00,,CLR,0.00,0.00,VWS V14.00,2013-03-09 00:17:00,
2013-03-08 18:18:00,37.8,32.8,30.16,SE,139,10.0,14.0,82,0.00,,CLR,0.00,0.00,VWS V14.00,2013-03-09 00:18:00,
2013-03-08 18:19:00,37.9,32.6,30.16,ESE,114,7.0,9.0,81,0.00,,CLR,0.00,0.00,VWS V14.00,2013-03-09 00:19:00,
2013-03-08 18:20:00,37.8,32.5,30.16,ESE,119,9.0,14.0,81,0.00,,,0.00,0.00,VWS V14.00,2013-03-09 00:20:00,
2013-03-08 18:22:00,37.8,32.8,30.16,SE,130,12.0,13.0,82,0.00,,CLR,0.00,0.00,VWS V14.00,2013-03-09 00:22:00,
2013-03-08 18:23:00,37.9,32.9,30.16,SSE,150,7.0,13.0,82,0.00,,CLR,0.00,0.00,VWS V14.00,2013-03-09 00:23:00,
2013-03-08 18:24:00,37.8,32.5,30.16,ESE,123,8.0,14.0,81,0.00,,CLR,0.00,0.00,VWS V14.00,2013-03-09 00:24:00,
2013-03-08 18:25:00,37.8,32.8,30.16,East,88,10.0,13.0,82,0.00,,,0.00,0.00,VWS V14.00,2013-03-09 00:25:00,
2013-03-08 18:27:00,37.9,32.6,30.16,SE,127,6.0,14.0,81,0.00,,CLR,0.00,0.00,VWS V14.00,2013-03-09 00:27:00,
2013-03-08 18:28:00,37.9,32.6,30.16,ESE,123,5.0,14.0,81,0.00,,CLR,0.00,0.00,VWS V14.00,2013-03-09 00:28:00,
2013-03-08 18:30:00,37.9,32.6,30.16,SE,126,7.0,11.0,81,0.00,,CLR,0.00,0.00,VWS V14.00,2013-03-09 00:30:00,
2013-03-08 18:32:00,37.9,32.6,30.16,SE,126,7.0,12.0,81,0.00,,CLR,0.00,0.00,VWS V14.00,2013-03-09 00:32:00,
2013-03-08 18:33:00,37.9,32.6,30.16,SSE,154,6.0,12.0,81,0.00,,CLR,0.00,0.00,VWS V14.00,2013-03-09 00:33:00,
2013-03-08 18:35:00,37.9,32.6,30.16,ESE,117,4.0,12.0,81,0.00,,,0.00,0.00,VWS V14.00,2013-03-09 00:35:00,
2013-03-08 18:36:00,37.9,32.6,30.16,SE,127,7.0,11.0,81,0.00,,CLR,0.00,0.00,VWS V14.00,2013-03-09 00:36:00,
2013-03-08 18:38:00,37.9,32.6,30.16,SE,126,5.0,11.0,81,0.00,,CLR,0.00,0.00,VWS V14.00,2013-03-09 00:38:00,
2013-03-08 18:40:00,37.9,32.6,30.16,SE,131,5.0,11.0,81,0.00,,,0.00,0.00,VWS V14.00,2013-03-09 00:40:00,
2013-03-08 18:41:00,37.8,32.5,30.16,SE,131,11.0,13.0,81,0.00,,CLR,0.00,0.00,VWS V14.00,2013-03-09 00:41:00,
2013-03-08 18:43:00,37.8,32.5,30.16,ESE,105,9.0,18.0,81,0.00,,CLR,0.00,0.00,VWS V14.00,2013-03-09 00:43:00,
2013-03-08 18:44:00,37.8,32.5,30.16,SE,129,9.0,18.0,81,0.00,,CLR,0.00,0.00,VWS V14.00,2013-03-09 00:44:00,
2013-03-08 18:45:00,37.8,32.5,30.16,ESE,121,6.0,18.0,81,0.00,,,0.00,0.00,VWS V14.00,2013-03-09 00:45:00,
2013-03-08 18:46:00,37.8,32.5,30.16,SE,140,8.0,11.0,81,0.00,,CLR,0.00,0.00,VWS V14.00,2013-03-09 00:46:00,
2013-03-08 18:48:00,37.7,32.4,30.16,ESE,121,7.0,15.0,81,0.00,,CLR,0.00,0.00,VWS V14.00,2013-03-09 00:48:00,
2013-03-08 18:49:00,37.7,32.4,30.16,SE,140,11.0,15.0,81,0.00,,CLR,0.00,0.00,VWS V14.00,2013-03-09 00:49:00,
2013-03-08 18:50:00,37.7,32.7,30.16,SE,133,8.0,15.0,82,0.00,,,0.00,0.00,VWS V14.00,2013-03-09 00:50:00,
2013-03-08 18:51:00,37.7,32.7,30.16,SE,138,7.0,12.0,82,0.00,,CLR,0.00,0.00,VWS V14.00,2013-03-09 00:51:00,
2013-03-08 18:53:00,37.7,32.7,30.16,SE,144,8.0,14.0,82,0.00,,CLR,0.00,0.00,VWS V14.00,2013-03-09 00:53:00,
2013-03-08 18:54:00,37.7,32.7,30.16,ESE,119,8.0,14.0,82,0.00,,CLR,0.00,0.00,VWS V14.00,2013-03-09 00:54:00,
2013-03-08 18:55:00,37.7,32.7,30.16,ESE,117,9.0,14.0,82,0.00,,,0.00,0.00,VWS V14.00,2013-03-09 00:55:00,
2013-03-08 18:57:00,37.7,32.7,30.16,SSE,167,6.0,14.0,82,0.00,,CLR,0.00,0.00,VWS V14.00,2013-03-09 00:57:00,
2013-03-08 18:58:00,37.8,32.5,30.16,SSE,156,7.0,14.0,81,0.00,,CLR,0.00,0.00,VWS V14.00,2013-03-09 00:58:00,
2013-03-08 18:59:00,37.8,32.5,30.16,ESE,115,7.0,13.0,81,0.00,,CLR,0.00,0.00,VWS V14.00,2013-03-09 00:59:00,
2013-03-08 19:00:00,37.8,32.5,30.16,ESE,122,13.0,14.0,81,0.00,,,0.00,0.00,VWS V14.00,2013-03-09 01:00:00,
2013-03-08 19:02:00,37.7,32.7,30.15,ESE,119,6.0,13.0,82,0.00,,CLR,0.00,0.00,VWS V14.00,2013-03-09 01:02:00,
2013-03-08 19:04:00,37.7,32.7,30.15,ESE,123,7.0,13.0,82,0.00,,CLR,0.00,0.00,VWS V14.00,2013-03-09 01:04:00,
2013-03-08 19:05:00,37.7,32.7,30.15,ESE,118,6.0,13.0,82,0.00,,,0.00,0.00,VWS V14.00,2013-03-09 01:05:00,
2013-03-08 19:07:00,37.5,32.5,30.15,SE,134,7.0,12.0,82,0.00,,CLR,0.00,0.00,VWS V14.00,2013-03-09 01:07:00,
2013-03-08 19:09:00,37.5,32.5,30.15,ESE,117,8.0,8.0,82,0.00,,CLR,0.00,0.00,VWS V14.00,2013-03-09 01:09:00,
2013-03-08 19:10:00,37.4,32.4,30.15,SE,129,9.0,12.0,82,0.00,,CLR,0.00,0.00,VWS V14.00,2013-03-09 01:10:00,
2013-03-08 19:13:00,37.4,32.7,30.15,SE,134,7.0,12.0,83,0.00,,CLR,0.00,0.00,VWS V14.00,2013-03-09 01:13:00,
2013-03-08 19:14:00,37.4,32.7,30.15,SSE,167,7.0,7.0,83,0.00,,CLR,0.00,0.00,VWS V14.00,2013-03-09 01:14:00,
2013-03-08 19:15:00,37.3,32.6,30.15,SE,146,7.0,11.0,83,0.00,,CLR,0.00,0.00,VWS V14.00,2013-03-09 01:15:00,
2013-03-08 19:18:00,37.3,32.6,30.15,SE,124,6.0,13.0,83,0.00,,CLR,0.00,0.00,VWS V14.00,2013-03-09 01:18:00,
2013-03-08 19:19:00,37.3,32.6,30.16,SE,134,7.0,7.0,83,0.00,,CLR,0.00,0.00,VWS V14.00,2013-03-09 01:19:00,
2013-03-08 19:20:00,37.3,32.6,30.16,ESE,112,5.0,13.0,83,0.00,,,0.00,0.00,VWS V14.00,2013-03-09 01:20:00,
2013-03-08 19:21:00,37.3,32.6,30.15,SE,124,6.0,11.0,83,0.00,,CLR,0.00,0.00,VWS V14.00,2013-03-09 01:21:00,
2013-03-08 19:23:00,37.2,32.5,30.15,SE,134,6.0,11.0,83,0.00,,CLR,0.00,0.00,VWS V14.00,2013-03-09 01:23:00,
2013-03-08 19:24:00,37.2,32.5,30.15,SE,136,7.0,7.0,83,0.00,,CLR,0.00,0.00,VWS V14.00,2013-03-09 01:24:00,
2013-03-08 19:25:00,37.2,32.5,30.15,SE,132,7.0,11.0,83,0.00,,,0.00,0.00,VWS V14.00,2013-03-09 01:25:00,
2013-03-08 19:26:00,37.2,32.5,30.15,SE,134,5.0,8.0,83,0.00,,CLR,0.00,0.00,VWS V14.00,2013-03-09 01:26:00,
2013-03-08 19:28:00,37.1,32.4,30.15,ESE,115,4.0,9.0,83,0.00,,CLR,0.00,0.00,VWS V14.00,2013-03-09 01:28:00,
2013-03-08 19:29:00,37.1,32.4,30.15,ESE,112,8.0,13.0,83,0.00,,CLR,0.00,0.00,VWS V14.00,2013-03-09 01:29:00,
2013-03-08 19:30:00,37.1,32.4,30.15,East,98,8.0,9.0,83,0.00,,,0.00,0.00,VWS V14.00,2013-03-09 01:30:00,
2013-03-08 19:31:00,37.1,32.4,30.15,SE,133,8.0,13.0,83,0.00,,CLR,0.00,0.00,VWS V14.00,2013-03-09 01:31:00,
2013-03-08 19:33:00,37.1,32.4,30.15,SE,125,7.0,13.0,83,0.00,,CLR,0.00,0.00,VWS V14.00,2013-03-09 01:33:00,
2013-03-08 19:34:00,37.1,32.4,30.15,SE,130,9.0,9.0,83,0.00,,CLR,0.00,0.00,VWS V14.00,2013-03-09 01:34:00,
2013-03-08 19:35:00,37.1,32.4,30.15,SE,131,7.0,9.0,83,0.00,,CLR,0.00,0.00,VWS V14.00,2013-03-09 01:35:00,
2013-03-08 19:36:00,37.0,32.3,30.15,SE,141,7.0,9.0,83,0.00,,CLR,0.00,0.00,VWS V14.00,2013-03-09 01:36:00,
2013-03-08 19:38:00,37.0,32.3,30.15,SE,126,5.0,9.0,83,0.00,,CLR,0.00,0.00,VWS V14.00,2013-03-09 01:38:00,
2013-03-08 19:39:00,37.0,32.3,30.15,SE,132,8.0,8.0,83,0.00,,CLR,0.00,0.00,VWS V14.00,2013-03-09 01:39:00,
2013-03-08 19:40:00,37.0,32.3,30.15,SE,146,7.0,8.0,83,0.00,,CLR,0.00,0.00,VWS V14.00,2013-03-09 01:40:00,
2013-03-08 19:42:00,37.0,32.6,30.15,ESE,112,7.0,13.0,84,0.00,,CLR,0.00,0.00,VWS V14.00,2013-03-09 01:42:00,
2013-03-08 19:43:00,36.9,32.5,30.14,SE,135,6.0,13.0,84,0.00,,CLR,0.00,0.00,VWS V14.00,2013-03-09 01:43:00,
2013-03-08 19:45:00,36.9,32.5,30.14,ESE,105,7.0,11.0,84,0.00,,CLR,0.00,0.00,VWS V14.00,2013-03-09 01:45:00,
2013-03-08 19:47:00,36.8,32.4,30.14,ESE,119,6.0,11.0,84,0.00,,CLR,0.00,0.00,VWS V14.00,2013-03-09 01:47:00,
2013-03-08 19:48:00,36.8,32.4,30.14,SSE,163,7.0,11.0,84,0.00,,CLR,0.00,0.00,VWS V14.00,2013-03-09 01:48:00,
2013-03-08 19:50:00,36.7,32.3,30.14,ESE,111,4.0,9.0,84,0.00,,CLR,0.00,0.00,VWS V14.00,2013-03-09 01:50:00,
2013-03-08 19:52:00,36.6,32.5,30.14,ESE,103,5.0,9.0,85,0.00,,CLR,0.00,0.00,VWS V14.00,2013-03-09 01:52:00,
2013-03-08 19:53:00,36.6,32.5,30.15,ESE,122,5.0,9.0,85,0.00,,CLR,0.00,0.00,VWS V14.00,2013-03-09 01:53:00,
2013-03-08 19:55:00,36.5,32.4,30.14,ESE,122,6.0,6.0,85,0.00,,CLR,0.00,0.00,VWS V14.00,2013-03-09 01:55:00,
2013-03-08 19:57:00,36.4,32.3,30.15,SE,128,6.0,7.0,85,0.00,,CLR,0.00,0.00,VWS V14.00,2013-03-09 01:57:00,
2013-03-08 19:59:00,36.4,32.6,30.14,SE,126,7.0,9.0,86,0.00,,CLR,0.00,0.00,VWS V14.00,2013-03-09 01:59:00,
2013-03-08 20:00:00,36.4,32.6,30.14,SE,132,4.0,8.0,86,0.00,,CLR,0.00,0.00,VWS V14.00,2013-03-09 02:00:00,
2013-03-08 20:02:00,36.3,32.5,30.14,ESE,123,5.0,8.0,86,0.00,,SCT120,0.00,0.00,VWS V14.00,2013-03-09 02:02:00,
2013-03-08 20:04:00,36.3,32.5,30.14,SE,145,6.0,11.0,86,0.00,,SCT120,0.00,0.00,VWS V14.00,2013-03-09 02:04:00,
2013-03-08 20:05:00,36.2,32.4,30.15,SE,146,8.0,8.0,86,0.00,,SCT120,0.00,0.00,VWS V14.00,2013-03-09 02:05:00,
2013-03-08 20:07:00,36.2,32.7,30.14,SE,132,5.0,8.0,87,0.00,,SCT120,0.00,0.00,VWS V14.00,2013-03-09 02:07:00,
2013-03-08 20:09:00,36.2,32.7,30.15,SE,142,5.0,8.0,87,0.00,,SCT120,0.00,0.00,VWS V14.00,2013-03-09 02:09:00,
2013-03-08 20:10:00,36.2,32.7,30.15,SE,127,8.0,9.0,87,0.00,,SCT120,0.00,0.00,VWS V14.00,2013-03-09 02:10:00,
2013-03-08 20:11:00,36.2,32.7,30.15,SSE,154,6.0,9.0,87,0.00,,SCT120,0.00,0.00,VWS V14.00,2013-03-09 02:11:00,
2013-03-08 20:13:00,36.2,32.7,30.14,SE,126,7.0,11.0,87,0.00,,SCT120,0.00,0.00,VWS V14.00,2013-03-09 02:13:00,
2013-03-08 20:14:00,36.1,32.6,30.14,SE,130,6.0,6.0,87,0.00,,SCT120,0.00,0.00,VWS V14.00,2013-03-09 02:14:00,
2013-03-08 20:15:00,36.1,32.6,30.15,SE,132,5.0,8.0,87,0.00,,SCT120,0.00,0.00,VWS V14.00,2013-03-09 02:15:00,
2013-03-08 20:16:00,36.1,32.6,30.15,SE,135,7.0,8.0,87,0.00,,SCT120,0.00,0.00,VWS V14.00,2013-03-09 02:16:00,
2013-03-08 20:18:00,36.1,32.6,30.15,SE,142,5.0,8.0,87,0.00,,SCT120,0.00,0.00,VWS V14.00,2013-03-09 02:18:00,
2013-03-08 20:19:00,36.1,32.6,30.15,SE,127,5.0,6.0,87,0.01,,SCT120,0.01,0.00,VWS V14.00,2013-03-09 02:19:00,
2013-03-08 20:20:00,36.1,32.6,30.15,SE,133,6.0,8.0,87,0.00,,,0.00,0.00,VWS V14.00,2013-03-09 02:20:00,
2013-03-08 20:21:00,36.1,32.6,30.15,SE,136,5.0,7.0,87,0.01,,BKN090,0.01,0.00,VWS V14.00,2013-03-09 02:21:00,
2013-03-08 20:23:00,36.0,32.8,30.15,SE,133,6.0,7.0,88,0.01,,BKN090,0.01,0.00,VWS V14.00,2013-03-09 02:23:00,
2013-03-08 20:24:00,36.0,32.8,30.15,SE,133,7.0,7.0,88,0.01,,BKN090,0.01,0.00,VWS V14.00,2013-03-09 02:24:00,
2013-03-08 20:25:00,36.0,32.8,30.15,South,170,5.0,7.0,88,0.01,,,0.01,0.00,VWS V14.00,2013-03-09 02:25:00,
2013-03-08 20:26:00,36.0,32.8,30.15,SE,126,5.0,7.0,88,0.01,,BKN090,0.01,0.00,VWS V14.00,2013-03-09 02:26:00,
2013-03-08 20:28:00,35.9,32.7,30.15,SE,139,7.0,7.0,88,0.01,,BKN090,0.01,0.00,VWS V14.00,2013-03-09 02:28:00,
2013-03-08 20:30:00,35.9,32.7,30.14,SE,140,6.0,7.0,88,0.01,,BKN090,0.01,0.00,VWS V14.00,2013-03-09 02:30:00,
2013-03-08 20:31:00,35.9,32.7,30.14,SE,127,5.0,8.0,88,0.01,,BKN090,0.01,0.00,VWS V14.00,2013-03-09 02:31:00,
2013-03-08 20:33:00,35.8,32.9,30.14,ESE,115,6.0,8.0,89,0.01,,BKN090,0.01,0.00,VWS V14.00,2013-03-09 02:33:00,
2013-03-08 20:35:00,35.8,32.9,30.14,SE,135,5.0,7.0,89,0.01,,BKN090,0.01,0.00,VWS V14.00,2013-03-09 02:35:00,
2013-03-08 20:36:00,35.8,32.9,30.14,ESE,115,7.0,8.0,89,0.01,,BKN090,0.01,0.00,VWS V14.00,2013-03-09 02:36:00,
2013-03-08 20:39:00,35.8,32.9,30.15,SSE,152,5.0,8.0,89,0.01,,BKN090,0.01,0.00,VWS V14.00,2013-03-09 02:39:00,
2013-03-08 20:40:00,35.8,32.9,30.14,SE,137,6.0,6.0,89,0.01,,,0.01,0.00,VWS V14.00,2013-03-09 02:40:00,
2013-03-08 20:42:00,35.8,32.9,30.14,SE,132,6.0,8.0,89,0.01,,,0.01,0.00,VWS V14.00,2013-03-09 02:42:00,
2013-03-08 20:44:00,35.8,32.9,30.14,ESE,121,6.0,11.0,89,0.01,,,0.01,0.00,VWS V14.00,2013-03-09 02:44:00,
2013-03-08 20:45:00,35.8,32.9,30.14,SE,132,6.0,8.0,89,0.01,,,0.01,0.00,VWS V14.00,2013-03-09 02:45:00,
2013-03-08 20:47:00,35.8,32.9,30.14,ESE,116,6.0,11.0,89,0.01,,,0.01,0.00,VWS V14.00,2013-03-09 02:47:00,
2013-03-08 20:49:00,35.7,32.8,30.14,SE,124,6.0,6.0,89,0.01,,,0.01,0.00,VWS V14.00,2013-03-09 02:49:00,
2013-03-08 20:50:00,35.7,32.8,30.14,ESE,118,6.0,11.0,89,0.01,,,0.01,0.00,VWS V14.00,2013-03-09 02:50:00,
2013-03-08 20:52:00,35.7,32.8,30.14,ESE,123,5.0,11.0,89,0.02,,,0.02,0.00,VWS V14.00,2013-03-09 02:52:00,
2013-03-08 20:54:00,35.7,32.8,30.14,SE,132,5.0,5.0,89,0.02,,,0.02,0.00,VWS V14.00,2013-03-09 02:54:00,
2013-03-08 20:55:00,35.7,32.8,30.14,ESE,123,4.0,7.0,89,0.02,,,0.02,0.00,VWS V14.00,2013-03-09 02:55:00,
2013-03-08 20:57:00,35.7,32.8,30.14,SE,134,7.0,8.0,89,0.02,,,0.02,0.00,VWS V14.00,2013-03-09 02:57:00,
2013-03-08 20:58:00,35.7,32.8,30.14,SE,128,6.0,8.0,89,0.02,,,0.02,0.00,VWS V14.00,2013-03-09 02:58:00,
2013-03-08 20:59:00,35.7,32.8,30.14,ESE,113,5.0,6.0,89,0.02,,,0.02,0.00,VWS V14.00,2013-03-09 02:59:00,
2013-03-08 21:00:00,35.7,32.8,30.14,SE,127,5.0,6.0,89,0.02,,RA,0.02,0.00,VWS V14.00,2013-03-09 03:00:00,
2013-03-08 21:02:00,35.6,32.7,30.14,ESE,108,5.0,7.0,89,0.02,,RA,0.02,0.00,VWS V14.00,2013-03-09 03:02:00,
2013-03-08 21:03:00,35.6,32.7,30.14,SE,130,5.0,7.0,89,0.02,,RA,0.02,0.00,VWS V14.00,2013-03-09 03:03:00,
2013-03-08 21:04:00,35.6,32.7,30.14,ESE,120,5.0,6.0,89,0.02,,RA,0.02,0.00,VWS V14.00,2013-03-09 03:04:00,
2013-03-08 21:05:00,35.6,32.7,30.14,ESE,121,4.0,7.0,89,0.02,,RA,0.02,0.00,VWS V14.00,2013-03-09 03:05:00,
2013-03-08 21:08:00,35.4,32.5,30.14,SE,132,5.0,7.0,89,0.02,,RA,0.02,0.00,VWS V14.00,2013-03-09 03:08:00,
2013-03-08 21:09:00,35.4,32.8,30.14,ESE,119,5.0,6.0,90,0.02,,RA,0.02,0.00,VWS V14.00,2013-03-09 03:09:00,
2013-03-08 21:10:00,35.5,32.6,30.14,ESE,113,5.0,7.0,89,0.02,,,0.02,0.00,VWS V14.00,2013-03-09 03:10:00,
2013-03-08 21:11:00,35.4,32.8,30.14,SE,133,6.0,6.0,90,0.02,,RA,0.02,0.00,VWS V14.00,2013-03-09 03:11:00,
2013-03-08 21:13:00,35.3,32.7,30.14,SE,128,6.0,6.0,90,0.02,,RA,0.02,0.00,VWS V14.00,2013-03-09 03:13:00,
2013-03-08 21:14:00,35.2,32.6,30.14,SE,132,5.0,7.0,90,0.02,,RA,0.02,0.00,VWS V14.00,2013-03-09 03:14:00,
2013-03-08 21:15:00,35.3,32.7,30.14,SE,127,5.0,6.0,90,0.02,,,0.02,0.00,VWS V14.00,2013-03-09 03:15:00,
2013-03-08 21:16:00,35.2,32.6,30.14,ESE,123,4.0,7.0,90,0.02,,RA,0.02,0.00,VWS V14.00,2013-03-09 03:16:00,
2013-03-08 21:18:00,35.2,32.6,30.14,SE,127,5.0,7.0,90,0.02,,RA,0.02,0.00,VWS V14.00,2013-03-09 03:18:00,
2013-03-08 21:19:00,35.2,32.8,30.14,SE,129,8.0,8.0,91,0.02,,RA,0.02,0.00,VWS V14.00,2013-03-09 03:19:00,
2013-03-08 21:20:00,35.2,32.6,30.14,SE,127,4.0,7.0,90,0.02,,,0.02,0.00,VWS V14.00,2013-03-09 03:20:00,
2013-03-08 21:21:00,35.2,32.8,30.14,SE,134,5.0,8.0,91,0.02,,,0.02,0.00,VWS V14.00,2013-03-09 03:21:00,
2013-03-08 21:23:00,35.1,32.7,30.14,ESE,123,5.0,8.0,91,0.03,,,0.03,0.00,VWS V14.00,2013-03-09 03:23:00,
2013-03-08 21:24:00,35.1,32.7,30.14,SE,126,4.0,5.0,91,0.02,,,0.03,0.00,VWS V14.00,2013-03-09 03:24:00,
2013-03-08 21:25:00,35.1,32.7,30.14,ESE,123,5.0,8.0,91,0.03,,,0.03,0.00,VWS V14.00,2013-03-09 03:25:00,
2013-03-08 21:26:00,35.1,32.7,30.14,ESE,121,5.0,6.0,91,0.02,,,0.03,0.00,VWS V14.00,2013-03-09 03:26:00,
2013-03-08 21:28:00,35.1,32.7,30.14,SE,130,4.0,6.0,91,0.02,,,0.03,0.00,VWS V14.00,2013-03-09 03:28:00,
2013-03-08 21:29:00,35.1,32.7,30.14,ESE,121,4.0,5.0,91,0.02,,,0.03,0.00,VWS V14.00,2013-03-09 03:29:00,
2013-03-08 21:30:00,35.1,32.7,30.14,SE,129,4.0,6.0,91,0.02,,,0.03,0.00,VWS V14.00,2013-03-09 03:30:00,
2013-03-08 21:31:00,35.1,32.7,30.14,SE,124,5.0,6.0,91,0.02,,,0.03,0.00,VWS V14.00,2013-03-09 03:31:00,
2013-03-08 21:33:00,35.1,32.7,30.14,ESE,122,5.0,7.0,91,0.02,,,0.03,0.00,VWS V14.00,2013-03-09 03:33:00,
2013-03-08 21:34:00,35.1,32.7,30.14,ESE,122,2.0,7.0,91,0.02,,,0.03,0.00,VWS V14.00,2013-03-09 03:34:00,
2013-03-08 21:35:00,35.1,32.7,30.14,ESE,122,5.0,6.0,91,0.02,,,0.03,0.00,VWS V14.00,2013-03-09 03:35:00,
2013-03-08 21:36:00,35.2,32.8,30.14,ESE,118,4.0,6.0,91,0.03,,,0.04,0.00,VWS V14.00,2013-03-09 03:36:00,
2013-03-08 21:39:00,35.2,32.8,30.14,ESE,112,4.0,6.0,91,0.03,,,0.04,0.00,VWS V14.00,2013-03-09 03:39:00,
2013-03-08 21:40:00,35.2,32.8,30.13,SE,129,5.0,6.0,91,0.03,,BKN080,0.04,0.00,VWS V14.00,2013-03-09 03:40:00,
2013-03-08 21:41:00,35.2,32.8,30.14,ESE,117,4.0,6.0,91,0.03,,BKN080,0.04,0.00,VWS V14.00,2013-03-09 03:41:00,
2013-03-08 21:44:00,35.2,32.8,30.13,SE,138,5.0,5.0,91,0.03,,BKN080,0.04,0.00,VWS V14.00,2013-03-09 03:44:00,
2013-03-08 21:45:00,35.2,32.8,30.13,ESE,118,4.0,7.0,91,0.03,,BKN080,0.04,0.00,VWS V14.00,2013-03-09 03:45:00,
2013-03-08 21:46:00,35.2,32.8,30.13,ESE,121,5.0,7.0,91,0.03,,BKN080,0.04,0.00,VWS V14.00,2013-03-09 03:46:00,
2013-03-08 21:49:00,35.3,32.9,30.13,SE,128,4.0,6.0,91,0.03,,BKN080,0.04,0.00,VWS V14.00,2013-03-09 03:49:00,
2013-03-08 21:50:00,35.3,32.9,30.12,SE,128,2.0,6.0,91,0.03,,BKN080,0.04,0.00,VWS V14.00,2013-03-09 03:50:00,
2013-03-08 21:51:00,35.3,32.9,30.13,ESE,115,5.0,6.0,91,0.03,,BKN080,0.04,0.00,VWS V14.00,2013-03-09 03:51:00,
2013-03-08 21:54:00,35.3,32.9,30.12,ESE,111,4.0,6.0,91,0.02,,BKN080,0.04,0.00,VWS V14.00,2013-03-09 03:54:00,
2013-03-08 21:55:00,35.3,32.9,30.12,ESE,123,2.0,6.0,91,0.02,,BKN080,0.04,0.00,VWS V14.00,2013-03-09 03:55:00,
2013-03-08 21:56:00,35.3,32.9,30.12,SE,134,6.0,7.0,91,0.02,,BKN080,0.04,0.00,VWS V14.00,2013-03-09 03:56:00,
2013-03-08 21:59:00,35.3,32.9,30.12,ESE,122,5.0,7.0,91,0.02,,BKN080,0.04,0.00,VWS V14.00,2013-03-09 03:59:00,
2013-03-08 22:00:00,35.4,33.0,30.12,SE,133,5.0,7.0,91,0.02,,BKN090,0.04,0.00,VWS V14.00,2013-03-09 04:00:00,
2013-03-08 22:01:00,35.3,32.9,30.12,SE,134,4.0,8.0,91,0.02,,BKN090,0.04,0.00,VWS V14.00,2013-03-09 04:01:00,
2013-03-08 22:04:00,35.4,33.0,30.12,SE,134,4.0,6.0,91,0.02,,BKN090,0.04,0.00,VWS V14.00,2013-03-09 04:04:00,
2013-03-08 22:05:00,35.4,33.0,30.12,SE,134,4.0,8.0,91,0.02,,,0.04,0.00,VWS V14.00,2013-03-09 04:05:00,
2013-03-08 22:06:00,35.4,33.0,30.12,ESE,107,4.0,7.0,91,0.02,,BKN090,0.04,0.00,VWS V14.00,2013-03-09 04:06:00,
2013-03-08 22:07:00,35.5,33.1,30.12,SE,142,4.0,7.0,91,0.02,,BKN090,0.04,0.00,VWS V14.00,2013-03-09 04:07:00,
2013-03-08 22:10:00,35.5,33.1,30.12,ESE,120,4.0,6.0,91,0.02,,BKN090,0.04,0.00,VWS V14.00,2013-03-09 04:10:00,
2013-03-08 22:11:00,35.5,33.1,30.12,SE,144,5.0,6.0,91,0.02,,BKN090,0.04,0.00,VWS V14.00,2013-03-09 04:11:00,
2013-03-08 22:12:00,35.5,33.1,30.12,SE,131,4.0,6.0,91,0.02,,BKN090,0.04,0.00,VWS V14.00,2013-03-09 04:12:00,
2013-03-08 22:15:00,35.5,33.1,30.12,SE,128,5.0,5.0,91,0.02,,BKN090,0.04,0.00,VWS V14.00,2013-03-09 04:15:00,
2013-03-08 22:16:00,35.6,33.0,30.12,SE,128,5.0,6.0,90,0.02,,BKN090,0.04,0.00,VWS V14.00,2013-03-09 04:16:00,
2013-03-08 22:17:00,35.6,33.0,30.12,ESE,117,4.0,6.0,90,0.02,,BKN090,0.04,0.00,VWS V14.00,2013-03-09 04:17:00,
2013-03-08 22:20:00,35.6,33.0,30.13,SE,134,4.0,5.0,90,0.02,,-RA,0.04,0.00,VWS V14.00,2013-03-09 04:20:00,
2013-03-08 22:21:00,35.6,33.0,30.13,SE,129,4.0,5.0,90,0.02,,-RA,0.04,0.00,VWS V14.00,2013-03-09 04:21:00,
2013-03-08 22:22:00,35.6,33.2,30.13,SE,129,2.0,7.0,91,0.02,,-RA,0.04,0.00,VWS V14.00,2013-03-09 04:22:00,
2013-03-08 22:25:00,35.6,33.2,30.12,SE,128,1.0,5.0,91,0.01,,-RA,0.04,0.00,VWS V14.00,2013-03-09 04:25:00,
2013-03-08 22:26:00,35.6,33.2,30.12,SE,128,4.0,5.0,91,0.01,,-RA,0.04,0.00,VWS V14.00,2013-03-09 04:26:00,
2013-03-08 22:27:00,35.6,33.2,30.12,ESE,115,4.0,5.0,91,0.01,,-RA,0.04,0.00,VWS V14.00,2013-03-09 04:27:00,
2013-03-08 22:28:00,35.6,33.2,30.12,SE,126,4.0,5.0,91,0.01,,-RA,0.04,0.00,VWS V14.00,2013-03-09 04:28:00,
2013-03-08 22:30:00,35.6,33.2,30.12,East,99,4.0,5.0,91,0.01,,-RA,0.04,0.00,VWS V14.00,2013-03-09 04:30:00,
2013-03-08 22:31:00,35.6,33.2,30.12,SE,128,4.0,6.0,91,0.01,,-RA,0.04,0.00,VWS V14.00,2013-03-09 04:31:00,
2013-03-08 22:32:00,35.6,33.2,30.12,SE,127,5.0,6.0,91,0.01,,-RA,0.04,0.00,VWS V14.00,2013-03-09 04:32:00,
2013-03-08 22:33:00,35.6,33.2,30.12,SE,128,1.0,6.0,91,0.01,,-RA,0.04,0.00,VWS V14.00,2013-03-09 04:33:00,
2013-03-08 22:35:00,35.5,33.1,30.12,ESE,121,4.0,6.0,91,0.02,,-RA,0.05,0.00,VWS V14.00,2013-03-09 04:35:00,
2013-03-08 22:36:00,35.5,33.1,30.12,ESE,122,4.0,6.0,91,0.02,,-RA,0.05,0.00,VWS V14.00,2013-03-09 04:36:00,
2013-03-08 22:37:00,35.5,33.1,30.12,ESE,123,5.0,6.0,91,0.02,,-RA,0.05,0.00,VWS V14.00,2013-03-09 04:37:00,
2013-03-08 22:38:00,35.5,33.1,30.12,SE,128,4.0,6.0,91,0.02,,-RA,0.05,0.00,VWS V14.00,2013-03-09 04:38:00,
2013-03-08 22:40:00,35.5,33.1,30.11,SE,137,4.0,6.0,91,0.01,,OVC090,0.05,0.00,VWS V14.00,2013-03-09 04:40:00,
2013-03-08 22:41:00,35.5,33.1,30.11,SE,137,4.0,6.0,91,0.01,,OVC090,0.05,0.00,VWS V14.00,2013-03-09 04:41:00,
2013-03-08 22:42:00,35.4,33.0,30.11,ESE,113,5.0,6.0,91,0.01,,OVC090,0.05,0.00,VWS V14.00,2013-03-09 04:42:00,
2013-03-08 22:43:00,35.4,33.0,30.11,ESE,114,2.0,6.0,91,0.01,,OVC090,0.05,0.00,VWS V14.00,2013-03-09 04:43:00,
2013-03-08 22:45:00,35.4,33.0,30.11,ESE,117,2.0,5.0,91,0.02,,OVC090,0.06,0.00,VWS V14.00,2013-03-09 04:45:00,
2013-03-08 22:47:00,35.3,33.2,30.11,SE,130,2.0,5.0,92,0.02,,OVC090,0.06,0.00,VWS V14.00,2013-03-09 04:47:00,
2013-03-08 22:48:00,35.3,33.2,30.11,SE,142,2.0,6.0,92,0.02,,OVC090,0.06,0.00,VWS V14.00,2013-03-09 04:48:00,
2013-03-08 22:50:00,35.3,33.2,30.11,SE,131,4.0,5.0,92,0.02,,OVC090,0.06,0.00,VWS V14.00,2013-03-09 04:50:00,
2013-03-08 22:52:00,35.2,33.1,30.11,SE,131,4.0,5.0,92,0.02,,OVC090,0.06,0.00,VWS V14.00,2013-03-09 04:52:00,
2013-03-08 22:53:00,35.2,33.1,30.10,ESE,120,6.0,7.0,92,0.02,,OVC090,0.06,0.00,VWS V14.00,2013-03-09 04:53:00,
2013-03-08 22:55:00,35.2,33.1,30.10,SE,133,5.0,7.0,92,0.02,,,0.06,0.00,VWS V14.00,2013-03-09 04:55:00,
2013-03-08 22:56:00,35.2,33.1,30.10,SE,124,2.0,6.0,92,0.02,,OVC090,0.06,0.00,VWS V14.00,2013-03-09 04:56:00,
2013-03-08 22:57:00,35.1,33.0,30.10,SE,129,5.0,6.0,92,0.02,,OVC090,0.06,0.00,VWS V14.00,2013-03-09 04:57:00,
2013-03-08 22:58:00,35.1,33.0,30.10,SE,128,4.0,6.0,92,0.02,,OVC090,0.06,0.00,VWS V14.00,2013-03-09 04:58:00,
2013-03-08 22:59:00,35.1,33.0,30.10,SE,140,6.0,6.0,92,0.02,,OVC090,0.06,0.00,VWS V14.00,2013-03-09 04:59:00,
2013-03-08 23:00:00,35.1,33.0,30.10,SE,126,5.0,7.0,92,0.02,,OVC090,0.06,0.00,VWS V14.00,2013-03-09 05:00:00,
2013-03-08 23:05:00,35.1,33.0,30.09,SE,129,6.0,8.0,92,0.02,,RA,0.06,0.00,VWS V14.00,2013-03-09 05:05:00,
2013-03-08 23:06:00,35.2,33.4,30.09,ESE,119,8.0,11.0,93,0.02,,RA,0.06,0.00,VWS V14.00,2013-03-09 05:06:00,
2013-03-08 23:10:00,35.3,33.2,30.09,ESE,119,6.0,9.0,92,0.02,,RA,0.06,0.00,VWS V14.00,2013-03-09 05:10:00,
2013-03-08 23:11:00,35.3,33.2,30.09,ESE,117,4.0,9.0,92,0.02,,RA,0.06,0.00,VWS V14.00,2013-03-09 05:11:00,
2013-03-08 23:15:00,35.3,33.2,30.09,ESE,103,6.0,7.0,92,0.02,,RA,0.06,0.00,VWS V14.00,2013-03-09 05:15:00,
2013-03-08 23:16:00,35.3,33.2,30.08,ESE,107,5.0,8.0,92,0.02,,RA,0.06,0.00,VWS V14.00,2013-03-09 05:16:00,
2013-03-08 23:20:00,35.2,33.1,30.08,SE,130,8.0,9.0,92,0.03,,RA,0.07,0.00,VWS V14.00,2013-03-09 05:20:00,
2013-03-08 23:21:00,35.2,33.4,30.08,ESE,114,2.0,9.0,93,0.03,,RA,0.07,0.00,VWS V14.00,2013-03-09 05:21:00,
2013-03-08 23:25:00,35.1,33.3,30.08,ESE,119,2.0,5.0,93,0.03,,RA,0.07,0.00,VWS V14.00,2013-03-09 05:25:00,
2013-03-08 23:26:00,35.0,33.2,30.08,ESE,119,1.0,5.0,93,0.03,,RA,0.07,0.00,VWS V14.00,2013-03-09 05:26:00,
2013-03-08 23:30:00,34.9,33.1,30.08,ESE,120,5.0,5.0,93,0.04,,RA,0.08,0.00,VWS V14.00,2013-03-09 05:30:00,
2013-03-08 23:31:00,34.9,33.1,30.08,SE,125,5.0,5.0,93,0.04,,RA,0.08,0.00,VWS V14.00,2013-03-09 05:31:00,
2013-03-08 23:35:00,34.9,33.3,30.07,SE,124,4.0,8.0,94,0.04,,RA,0.08,0.00,VWS V14.00,2013-03-09 05:35:00,
2013-03-08 23:36:00,34.9,33.3,30.07,SSE,148,4.0,8.0,94,0.04,,RA,0.08,0.00,VWS V14.00,2013-03-09 05:36:00,
2013-03-08 23:40:00,35.0,33.5,30.07,ESE,116,4.0,9.0,94,0.03,,-RA,0.08,0.00,VWS V14.00,2013-03-09 05:40:00,
2013-03-08 23:41:00,35.0,33.5,30.07,ESE,119,2.0,9.0,94,0.03,,-RA,0.08,0.00,VWS V14.00,2013-03-09 05:41:00,
2013-03-08 23:45:00,35.0,33.5,30.07,SE,130,2.0,9.0,94,0.04,,,0.09,0.00,VWS V14.00,2013-03-09 05:45:00,
2013-03-08 23:46:00,35.0,33.5,30.07,ESE,109,6.0,7.0,94,0.04,,-RA,0.09,0.00,VWS V14.00,2013-03-09 05:46:00,
2013-03-08 23:50:00,35.0,33.5,30.07,SE,138,4.0,7.0,94,0.04,,,0.09,0.00,VWS V14.00,2013-03-09 05:50:00,
2013-03-08 23:51:00,35.0,33.5,30.07,ESE,107,4.0,7.0,94,0.03,,-RA,0.09,0.00,VWS V14.00,2013-03-09 05:51:00,
2013-03-08 23:52:00,35.0,33.5,30.07,SE,140,2.0,7.0,94,0.03,,-RA,0.09,0.00,VWS V14.00,2013-03-09 05:52:00,
2013-03-08 23:55:00,35.1,33.5,30.07,ESE,121,6.0,11.0,94,0.03,,,0.09,0.00,VWS V14.00,2013-03-09 05:55:00,
2013-03-08 23:56:00,35.2,33.7,30.07,SE,143,8.0,8.0,94,0.03,,-RA,0.09,0.00,VWS V14.00,2013-03-09 05:56:00,
2013-03-08 23:57:00,35.2,33.7,30.07,SE,132,6.0,8.0,94,0.03,,-RA,0.09,0.00,VWS V14.00,2013-03-09 05:57:00,